| time (UTC) | temp F | wind direction | speed knots | gust knots | rain 1hr in | rain 24hr in | rain mn in | humidity % | barometer mb |
| 20260506165451 | 62 | 147 | 1.7 | 3.5 | 0.00 | 0.00 | 0.00 | 78 | 1020.2 |
| 20260506165351 | 62 | 147 | 1.7 | 3.5 | 0.00 | 0.00 | 0.00 | 78 | 1020.2 |
| 20260506165331 | 62 | 146 | 1.7 | 3.5 | 0.00 | 0.00 | 0.00 | 78 | 1020.1 |
| 20260506165252 | 62 | 151 | 1.7 | 3.5 | 0.00 | 0.00 | 0.00 | 78 | 1020.1 |
| 20260506165145 | 62 | 136 | 1.7 | 3.5 | 0.00 | 0.00 | 0.00 | 77 | 1020.2 |
| 20260506165046 | 62 | 211 | 1.7 | 3.5 | 0.00 | 0.00 | 0.00 | 77 | 1020.2 |
| 20260506164946 | 62 | 226 | 1.7 | 3.5 | 0.00 | 0.00 | 0.00 | 77 | 1020.2 |
| 20260506164833 | 62 | 219 | 1.7 | 3.5 | 0.00 | 0.00 | 0.00 | 77 | 1020.2 |
| 20260506164745 | 62 | 212 | 1.7 | 3.5 | 0.00 | 0.00 | 0.00 | 77 | 1020.2 |
| 20260506164645 | 62 | 236 | 1.7 | 3.5 | 0.00 | 0.00 | 0.00 | 78 | 1020.3 |
| 20260506164545 | 62 | 155 | 0.9 | 3.5 | 0.00 | 0.00 | 0.00 | 78 | 1020.2 |
| 20260506164446 | 62 | 138 | 1.7 | 3.5 | 0.00 | 0.00 | 0.00 | 78 | 1020.2 |
| 20260506164343 | 62 | 149 | 1.7 | 3.5 | 0.00 | 0.00 | 0.00 | 78 | 1020.2 |
| 20260506164329 | 62 | 150 | 0.9 | 3.5 | 0.00 | 0.00 | 0.00 | 79 | 1020.2 |
| 20260506164244 | 62 | 141 | 0.9 | 3.5 | 0.00 | 0.00 | 0.00 | 79 | 1020.2 |
| 20260506164143 | 62 | 148 | 1.7 | 3.5 | 0.00 | 0.00 | 0.00 | 78 | 1020.2 |
| 20260506164043 | 62 | 212 | 1.7 | 3.5 | 0.00 | 0.00 | 0.00 | 78 | 1020.2 |
| 20260506163944 | 62 | 226 | 0.9 | 4.3 | 0.00 | 0.00 | 0.00 | 78 | 1020.2 |
| 20260506163829 | 62 | 239 | 0.9 | 4.3 | 0.00 | 0.00 | 0.00 | 79 | 1020.2 |
| 20260506163743 | 62 | 239 | 0.9 | 4.3 | 0.00 | 0.00 | 0.00 | 78 | 1020.2 |
| 20260506163641 | 62 | 239 | 0.9 | 4.3 | 0.00 | 0.00 | 0.00 | 78 | 1020.2 |
| 20260506163540 | 62 | 239 | 0.9 | 4.3 | 0.00 | 0.00 | 0.00 | 78 | 1020.2 |
| 20260506163440 | 62 | 239 | 0.9 | 4.3 | 0.00 | 0.00 | 0.00 | 78 | 1020.2 |
| 20260506163331 | 62 | 248 | 0.9 | 4.3 | 0.00 | 0.00 | 0.00 | 78 | 1020.2 |
| 20260506163139 | 62 | 153 | 0.9 | 4.3 | 0.00 | 0.00 | 0.00 | 78 | 1020.2 |
| 20260506163039 | 62 | 217 | 0.9 | 4.3 | 0.00 | 0.00 | 0.00 | 79 | 1020.2 |
| 20260506162935 | 62 | 138 | 0.9 | 1.7 | 0.00 | 0.00 | 0.00 | 79 | 1020.2 |
| 20260506162830 | 62 | 231 | 0.9 | 1.7 | 0.00 | 0.00 | 0.00 | 80 | 1020.2 |
| 20260506162733 | 62 | 231 | 0.9 | 1.7 | 0.00 | 0.00 | 0.00 | 79 | 1020.2 |
| 20260506162632 | 62 | 231 | 0.9 | 1.7 | 0.00 | 0.00 | 0.00 | 79 | 1020.2 |
| 20260506162531 | 62 | 214 | 0.0 | 2.6 | 0.00 | 0.00 | 0.00 | 80 | 1020.2 |
| 20260506162427 | 61 | 137 | 0.0 | 2.6 | 0.00 | 0.00 | 0.00 | 80 | 1020.2 |
| 20260506162333 | 61 | 222 | 0.0 | 2.6 | 0.00 | 0.00 | 0.00 | 80 | 1020.2 |
| 20260506162325 | 61 | 221 | 0.0 | 2.6 | 0.00 | 0.00 | 0.00 | 80 | 1020.2 |
| 20260506162225 | 61 | 222 | 0.9 | 3.5 | 0.00 | 0.00 | 0.00 | 80 | 1020.2 |
| 20260506162125 | 61 | 222 | 0.9 | 3.5 | 0.00 | 0.00 | 0.00 | 80 | 1020.1 |
| 20260506162025 | 61 | 222 | 0.9 | 3.5 | 0.00 | 0.00 | 0.00 | 81 | 1020.1 |
| 20260506161921 | 61 | 151 | 0.9 | 4.3 | 0.00 | 0.00 | 0.00 | 81 | 1020.1 |
| 20260506161819 | 61 | 225 | 0.9 | 4.3 | 0.00 | 0.00 | 0.00 | 81 | 1020.1 |
| 20260506161719 | 61 | 225 | 0.9 | 4.3 | 0.00 | 0.00 | 0.00 | 81 | 1020.1 |
| 20260506161618 | 60 | 224 | 0.9 | 4.3 | 0.00 | 0.00 | 0.00 | 81 | 1020.1 |
| 20260506161517 | 60 | 208 | 0.9 | 4.3 | 0.00 | 0.00 | 0.00 | 81 | 1020.1 |
| 20260506161417 | 60 | 174 | 0.9 | 4.3 | 0.00 | 0.00 | 0.00 | 81 | 1020.2 |
| 20260506161328 | 60 | 174 | 0.9 | 4.3 | 0.00 | 0.00 | 0.00 | 80 | 1020.2 |
| 20260506161315 | 60 | 177 | 0.9 | 4.3 | 0.00 | 0.00 | 0.00 | 80 | 1020.2 |
| 20260506161215 | 60 | 146 | 1.7 | 4.3 | 0.00 | 0.00 | 0.00 | 80 | 1020.2 |
| 20260506161113 | 60 | 226 | 0.9 | 4.3 | 0.00 | 0.00 | 0.00 | 80 | 1020.2 |
| 20260506161011 | 60 | 176 | 0.9 | 4.3 | 0.00 | 0.00 | 0.00 | 81 | 1020.3 |
| 20260506160907 | 60 | 157 | 0.9 | 3.5 | 0.00 | 0.00 | 0.00 | 81 | 1020.2 |
| 20260506160807 | 60 | 238 | 0.9 | 3.5 | 0.00 | 0.00 | 0.00 | 81 | 1020.2 |
| 20260506160707 | 60 | 238 | 0.9 | 3.5 | 0.00 | 0.00 | 0.00 | 81 | 1020.2 |
| 20260506160605 | 60 | 238 | 0.9 | 3.5 | 0.00 | 0.00 | 0.00 | 80 | 1020.2 |
| 20260506160504 | 60 | 238 | 0.9 | 3.5 | 0.00 | 0.00 | 0.00 | 80 | 1020.2 |
| 20260506160359 | 60 | 238 | 0.9 | 3.5 | 0.00 | 0.00 | 0.00 | 81 | 1020.2 |
| 20260506160319 | 60 | 238 | 0.0 | 3.5 | 0.00 | 0.00 | 0.00 | 81 | 1020.2 |
| 20260506160257 | 60 | 216 | 0.0 | 3.5 | 0.00 | 0.00 | 0.00 | 81 | 1020.2 |
| 20260506160157 | 60 | 222 | 0.0 | 2.6 | 0.00 | 0.00 | 0.00 | 81 | 1020.2 |
| 20260506160056 | 60 | 205 | 0.0 | 2.6 | 0.00 | 0.00 | 0.00 | 81 | 1020.2 |
| 20260506155955 | 60 | 205 | 0.9 | 3.5 | 0.00 | 0.00 | 0.00 | 82 | 1020.2 |
| 20260506155826 | 60 | 205 | 0.9 | 3.5 | 0.00 | 0.00 | 0.00 | 83 | 1020.3 |
| 20260506155649 | 60 | 205 | 0.9 | 3.5 | 0.00 | 0.00 | 0.00 | 82 | 1020.3 |
| 20260506155549 | 60 | 205 | 0.9 | 3.5 | 0.00 | 0.00 | 0.00 | 82 | 1020.2 |
| 20260506155449 | 60 | 205 | 0.9 | 3.5 | 0.00 | 0.00 | 0.00 | 81 | 1020.3 |
| 20260506155344 | 60 | 204 | 0.9 | 3.5 | 0.00 | 0.00 | 0.00 | 81 | 1020.3 |
| 20260506155314 | 60 | 203 | 0.9 | 3.5 | 0.00 | 0.00 | 0.00 | 81 | 1020.3 |
| 20260506155243 | 60 | 232 | 0.9 | 3.5 | 0.00 | 0.00 | 0.00 | 81 | 1020.2 |
| 20260506155143 | 60 | 236 | 0.9 | 3.5 | 0.00 | 0.00 | 0.00 | 82 | 1020.3 |
| 20260506155043 | 60 | 232 | 0.9 | 3.5 | 0.00 | 0.00 | 0.00 | 82 | 1020.2 |
| 20260506154944 | 60 | 190 | 0.9 | 2.6 | 0.00 | 0.00 | 0.00 | 82 | 1020.2 |
| 20260506154813 | 60 | 233 | 0.9 | 2.6 | 0.00 | 0.00 | 0.00 | 82 | 1020.2 |
| 20260506154737 | 60 | 224 | 0.9 | 3.5 | 0.00 | 0.00 | 0.00 | 82 | 1020.2 |
| 20260506154635 | 60 | 218 | 0.9 | 3.5 | 0.00 | 0.00 | 0.00 | 82 | 1020.2 |
| 20260506154535 | 60 | 150 | 0.9 | 3.5 | 0.00 | 0.00 | 0.00 | 82 | 1020.2 |
| 20260506154435 | 60 | 232 | 0.9 | 3.5 | 0.00 | 0.00 | 0.00 | 82 | 1020.3 |
| 20260506154312 | 59 | 207 | 0.9 | 3.5 | 0.00 | 0.00 | 0.00 | 82 | 1020.2 |
| 20260506154233 | 59 | 207 | 0.9 | 3.5 | 0.00 | 0.00 | 0.00 | 82 | 1020.3 |
| 20260506154129 | 59 | 208 | 0.9 | 3.5 | 0.00 | 0.00 | 0.00 | 82 | 1020.2 |
| 20260506154029 | 59 | 205 | 0.9 | 3.5 | 0.00 | 0.00 | 0.00 | 82 | 1020.2 |
| 20260506153927 | 59 | 231 | 0.9 | 3.5 | 0.00 | 0.00 | 0.00 | 82 | 1020.2 |
| 20260506153813 | 59 | 231 | 0.9 | 3.5 | 0.00 | 0.00 | 0.00 | 82 | 1020.2 |
| 20260506153721 | 59 | 233 | 0.9 | 3.5 | 0.00 | 0.00 | 0.00 | 82 | 1020.2 |
| 20260506153621 | 59 | 159 | 0.9 | 3.5 | 0.00 | 0.00 | 0.00 | 82 | 1020.2 |
| 20260506153519 | 59 | 217 | 0.9 | 3.5 | 0.00 | 0.00 | 0.00 | 82 | 1020.2 |
| 20260506153420 | 59 | 242 | 0.9 | 3.5 | 0.00 | 0.00 | 0.00 | 82 | 1020.2 |
| 20260506153315 | 59 | 138 | 0.9 | 3.5 | 0.00 | 0.00 | 0.00 | 82 | 1020.2 |
| 20260506153214 | 59 | 134 | 0.9 | 3.5 | 0.00 | 0.00 | 0.00 | 82 | 1020.2 |
| 20260506153113 | 59 | 233 | 0.9 | 3.5 | 0.00 | 0.00 | 0.00 | 82 | 1020.2 |
| 20260506153014 | 59 | 214 | 0.9 | 2.6 | 0.00 | 0.00 | 0.00 | 82 | 1020.2 |
| 20260506152913 | 59 | 222 | 0.9 | 2.6 | 0.00 | 0.00 | 0.00 | 83 | 1020.2 |
| 20260506152815 | 59 | 204 | 0.9 | 3.5 | 0.00 | 0.00 | 0.00 | 83 | 1020.2 |
| 20260506152807 | 59 | 212 | 0.9 | 3.5 | 0.00 | 0.00 | 0.00 | 83 | 1020.2 |
| 20260506152708 | 59 | 214 | 0.9 | 3.5 | 0.00 | 0.00 | 0.00 | 83 | 1020.2 |
| 20260506152605 | 59 | 215 | 0.9 | 3.5 | 0.00 | 0.00 | 0.00 | 83 | 1020.2 |
| 20260506152505 | 59 | 218 | 0.9 | 3.5 | 0.00 | 0.00 | 0.00 | 82 | 1020.2 |
| 20260506152405 | 59 | 219 | 0.9 | 3.5 | 0.00 | 0.00 | 0.00 | 82 | 1020.1 |
| 20260506152312 | 59 | 220 | 0.9 | 3.5 | 0.00 | 0.00 | 0.00 | 83 | 1020.1 |
| 20260506152306 | 59 | 219 | 0.9 | 3.5 | 0.00 | 0.00 | 0.00 | 83 | 1020.1 |
| 20260506152203 | 59 | 160 | 0.9 | 3.5 | 0.00 | 0.00 | 0.00 | 82 | 1020.1 |
| 20260506152102 | 58 | 214 | 0.9 | 4.3 | 0.00 | 0.00 | 0.00 | 83 | 1020.1 |
| 20260506152001 | 58 | 239 | 1.7 | 4.3 | 0.00 | 0.00 | 0.00 | 82 | 1020.2 |
| 20260506151859 | 58 | 239 | 0.9 | 4.3 | 0.00 | 0.00 | 0.00 | 82 | 1020.1 |
| 20260506151809 | 58 | 243 | 0.9 | 4.3 | 0.00 | 0.00 | 0.00 | 83 | 1020.2 |
| 20260506151755 | 58 | 232 | 0.9 | 4.3 | 0.00 | 0.00 | 0.00 | 83 | 1020.2 |
| 20260506151655 | 58 | 232 | 0.9 | 4.3 | 0.00 | 0.00 | 0.00 | 83 | 1020.2 |
| 20260506151555 | 58 | 232 | 0.9 | 4.3 | 0.00 | 0.00 | 0.00 | 83 | 1020.2 |
| 20260506151453 | 58 | 232 | 0.9 | 4.3 | 0.00 | 0.00 | 0.00 | 82 | 1020.2 |
| 20260506151351 | 58 | 233 | 0.9 | 4.3 | 0.00 | 0.00 | 0.00 | 83 | 1020.1 |
| 20260506151310 | 58 | 233 | 0.9 | 4.3 | 0.00 | 0.00 | 0.00 | 83 | 1020.2 |
| 20260506151245 | 58 | 217 | 0.9 | 4.3 | 0.00 | 0.00 | 0.00 | 82 | 1020.2 |
| 20260506151145 | 58 | 232 | 0.9 | 4.3 | 0.00 | 0.00 | 0.00 | 83 | 1020.1 |
| 20260506151045 | 58 | 242 | 0.9 | 3.5 | 0.00 | 0.00 | 0.00 | 83 | 1020.1 |
| 20260506150943 | 58 | 193 | 0.9 | 2.6 | 0.00 | 0.00 | 0.00 | 83 | 1020.1 |
| 20260506150843 | 58 | 193 | 0.9 | 2.6 | 0.00 | 0.00 | 0.00 | 84 | 1020.1 |
| 20260506150810 | 58 | 193 | 0.9 | 2.6 | 0.00 | 0.00 | 0.00 | 83 | 1020.1 |
| 20260506150741 | 58 | 240 | 0.9 | 2.6 | 0.00 | 0.00 | 0.00 | 84 | 1020.1 |
| 20260506150641 | 58 | 187 | 0.9 | 2.6 | 0.00 | 0.00 | 0.00 | 84 | 1020.1 |
| 20260506150543 | 58 | 187 | 0.9 | 2.6 | 0.00 | 0.00 | 0.00 | 83 | 1020.0 |
| 20260506150441 | 58 | 233 | 0.9 | 2.6 | 0.00 | 0.00 | 0.00 | 84 | 1020.1 |
| 20260506150342 | 58 | 233 | 0.9 | 2.6 | 0.00 | 0.00 | 0.00 | 84 | 1020.1 |
| 20260506150307 | 58 | 228 | 0.9 | 2.6 | 0.00 | 0.00 | 0.00 | 84 | 1020.1 |
| 20260506150241 | 58 | 243 | 0.9 | 2.6 | 0.00 | 0.00 | 0.00 | 84 | 1020.0 |
| 20260506150141 | 58 | 207 | 0.9 | 2.6 | 0.00 | 0.00 | 0.00 | 84 | 1020.1 |
| 20260506150042 | 58 | 225 | 0.9 | 3.5 | 0.00 | 0.00 | 0.00 | 84 | 1020.0 |
| 20260506145941 | 58 | 233 | 0.9 | 3.5 | 0.00 | 0.00 | 0.00 | 84 | 1020.0 |
| 20260506145841 | 58 | 256 | 0.9 | 3.5 | 0.00 | 0.00 | 0.00 | 84 | 1020.1 |
| 20260506145820 | 58 | 240 | 0.9 | 3.5 | 0.00 | 0.00 | 0.00 | 84 | 1020.1 |
| 20260506145741 | 58 | 240 | 0.9 | 3.5 | 0.00 | 0.00 | 0.00 | 84 | 1020.1 |
| 20260506145639 | 58 | 240 | 0.9 | 3.5 | 0.00 | 0.00 | 0.00 | 84 | 1020.1 |
| 20260506145543 | 58 | 240 | 0.9 | 3.5 | 0.00 | 0.00 | 0.00 | 84 | 1020.1 |
| 20260506145439 | 58 | 240 | 0.9 | 3.5 | 0.00 | 0.00 | 0.00 | 84 | 1020.1 |
| 20260506145339 | 58 | 229 | 0.9 | 3.5 | 0.00 | 0.00 | 0.00 | 84 | 1020.1 |
| 20260506145306 | 58 | 229 | 0.9 | 3.5 | 0.00 | 0.00 | 0.00 | 84 | 1020.1 |
| 20260506145239 | 58 | 238 | 0.9 | 3.5 | 0.00 | 0.00 | 0.00 | 84 | 1020.1 |
| 20260506145139 | 58 | 150 | 0.9 | 3.5 | 0.00 | 0.00 | 0.00 | 84 | 1020.1 |
| 20260506145035 | 58 | 140 | 0.9 | 3.5 | 0.00 | 0.00 | 0.00 | 84 | 1020.1 |
| 20260506144933 | 58 | 217 | 0.9 | 3.5 | 0.00 | 0.00 | 0.00 | 84 | 1020.1 |
| 20260506144834 | 58 | 192 | 0.9 | 3.5 | 0.00 | 0.00 | 0.00 | 84 | 1020.2 |
| 20260506144807 | 58 | 193 | 0.9 | 3.5 | 0.00 | 0.00 | 0.00 | 84 | 1020.2 |
| 20260506144734 | 58 | 210 | 0.9 | 3.5 | 0.00 | 0.00 | 0.00 | 84 | 1020.1 |
| 20260506144633 | 58 | 165 | 0.9 | 3.5 | 0.00 | 0.00 | 0.00 | 84 | 1020.1 |
| 20260506144533 | 58 | 217 | 0.9 | 3.5 | 0.00 | 0.00 | 0.00 | 84 | 1020.1 |
| 20260506144431 | 58 | 158 | 0.9 | 3.5 | 0.00 | 0.00 | 0.00 | 84 | 1020.1 |
| 20260506144305 | 58 | 158 | 0.9 | 3.5 | 0.00 | 0.00 | 0.00 | 84 | 1020.2 |
| 20260506144233 | 58 | 158 | 0.9 | 3.5 | 0.00 | 0.00 | 0.00 | 84 | 1020.1 |
| 20260506144128 | 58 | 217 | 0.9 | 3.5 | 0.00 | 0.00 | 0.00 | 84 | 1020.1 |
| 20260506144029 | 58 | 218 | 0.9 | 3.5 | 0.00 | 0.00 | 0.00 | 84 | 1020.1 |
| 20260506143927 | 58 | 224 | 0.9 | 2.6 | 0.00 | 0.00 | 0.00 | 84 | 1020.1 |
| 20260506143827 | 58 | 238 | 0.9 | 2.6 | 0.00 | 0.00 | 0.00 | 84 | 1020.0 |
| 20260506143759 | 58 | 237 | 0.9 | 2.6 | 0.00 | 0.00 | 0.00 | 84 | 1020.0 |
| 20260506143727 | 58 | 236 | 0.9 | 2.6 | 0.00 | 0.00 | 0.00 | 84 | 1020.0 |
| 20260506143627 | 58 | 236 | 0.0 | 2.6 | 0.00 | 0.00 | 0.00 | 84 | 1020.0 |
| 20260506143527 | 58 | 225 | 0.0 | 2.6 | 0.00 | 0.00 | 0.00 | 84 | 1020.0 |
| 20260506143428 | 58 | 225 | 0.0 | 2.6 | 0.00 | 0.00 | 0.00 | 84 | 1020.0 |
| 20260506143327 | 58 | 139 | 0.9 | 2.6 | 0.00 | 0.00 | 0.00 | 84 | 1020.0 |
| 20260506143257 | 58 | 140 | 0.9 | 2.6 | 0.00 | 0.00 | 0.00 | 84 | 1020.0 |
| 20260506143225 | 58 | 157 | 0.9 | 2.6 | 0.00 | 0.00 | 0.00 | 84 | 1020.0 |
| 20260506143126 | 58 | 162 | 0.9 | 2.6 | 0.00 | 0.00 | 0.00 | 85 | 1020.0 |
| 20260506143023 | 58 | 160 | 0.9 | 2.6 | 0.00 | 0.00 | 0.00 | 85 | 1020.0 |
| 20260506142921 | 58 | 203 | 0.9 | 2.6 | 0.00 | 0.00 | 0.00 | 85 | 1020.0 |
| 20260506142821 | 58 | 203 | 0.9 | 2.6 | 0.00 | 0.00 | 0.00 | 85 | 1020.0 |
| 20260506142757 | 58 | 165 | 0.9 | 2.6 | 0.00 | 0.00 | 0.00 | 85 | 1020.0 |
| 20260506142722 | 58 | 150 | 0.9 | 2.6 | 0.00 | 0.00 | 0.00 | 85 | 1020.0 |
| 20260506142622 | 57 | 149 | 0.9 | 2.6 | 0.00 | 0.00 | 0.00 | 85 | 1019.9 |
| 20260506142522 | 57 | 150 | 0.9 | 2.6 | 0.00 | 0.00 | 0.00 | 85 | 1020.0 |
| 20260506142421 | 57 | 149 | 0.9 | 2.6 | 0.00 | 0.00 | 0.00 | 85 | 1019.9 |
| 20260506142320 | 57 | 172 | 0.9 | 2.6 | 0.00 | 0.00 | 0.00 | 85 | 1019.9 |
| 20260506142256 | 57 | 149 | 0.9 | 2.6 | 0.00 | 0.00 | 0.00 | 85 | 1019.9 |
| 20260506142219 | 57 | 141 | 0.9 | 2.6 | 0.00 | 0.00 | 0.00 | 85 | 1019.9 |
| 20260506142119 | 57 | 222 | 0.9 | 2.6 | 0.00 | 0.00 | 0.00 | 85 | 1019.9 |
| 20260506142017 | 57 | 210 | 0.9 | 2.6 | 0.00 | 0.00 | 0.00 | 85 | 1019.9 |
| 20260506141915 | 57 | 142 | 0.9 | 2.6 | 0.00 | 0.00 | 0.00 | 85 | 1019.9 |
| 20260506141811 | 57 | 146 | 0.9 | 2.6 | 0.00 | 0.00 | 0.00 | 85 | 1019.9 |
| 20260506141757 | 57 | 145 | 0.9 | 2.6 | 0.00 | 0.00 | 0.00 | 85 | 1019.9 |
| 20260506141711 | 57 | 146 | 0.9 | 2.6 | 0.00 | 0.00 | 0.00 | 85 | 1019.8 |
| 20260506141611 | 57 | 221 | 0.9 | 2.6 | 0.00 | 0.00 | 0.00 | 85 | 1019.8 |
| 20260506141510 | 57 | 158 | 0.9 | 2.6 | 0.00 | 0.00 | 0.00 | 85 | 1019.8 |
| 20260506141407 | 57 | 188 | 0.9 | 2.6 | 0.00 | 0.00 | 0.00 | 85 | 1019.8 |
| 20260506141256 | 57 | 183 | 0.9 | 2.6 | 0.00 | 0.00 | 0.00 | 85 | 1019.8 |
| 20260506141201 | 57 | 207 | 0.9 | 2.6 | 0.00 | 0.00 | 0.00 | 85 | 1019.8 |
| 20260506141102 | 57 | 224 | 0.9 | 2.6 | 0.00 | 0.00 | 0.00 | 85 | 1019.8 |
| 20260506140959 | 57 | 224 | 0.9 | 2.6 | 0.00 | 0.00 | 0.00 | 85 | 1019.8 |
| 20260506140859 | 57 | 224 | 0.9 | 2.6 | 0.00 | 0.00 | 0.00 | 85 | 1019.8 |
| 20260506140755 | 57 | 224 | 0.9 | 2.6 | 0.00 | 0.00 | 0.00 | 85 | 1019.8 |
| 20260506140653 | 57 | 224 | 0.0 | 2.6 | 0.00 | 0.00 | 0.00 | 85 | 1019.7 |
| 20260506140554 | 57 | 219 | 0.0 | 2.6 | 0.00 | 0.00 | 0.00 | 85 | 1019.7 |
| 20260506140454 | 57 | 204 | 0.0 | 1.7 | 0.00 | 0.00 | 0.00 | 85 | 1019.7 |
| 20260506140353 | 57 | 207 | 0.0 | 0.9 | 0.00 | 0.00 | 0.00 | 85 | 1019.7 |
| 20260506140249 | 57 | 210 | 0.0 | 0.9 | 0.00 | 0.00 | 0.00 | 85 | 1019.7 |
| 20260506140148 | 57 | 210 | 0.0 | 0.9 | 0.00 | 0.00 | 0.00 | 85 | 1019.7 |
| 20260506140047 | 57 | 210 | 0.0 | 0.9 | 0.00 | 0.00 | 0.00 | 86 | 1019.6 |
| 20260506135945 | 57 | 210 | 0.0 | 0.9 | 0.00 | 0.00 | 0.00 | 86 | 1019.6 |
| 20260506135845 | 57 | 210 | 0.0 | 0.9 | 0.00 | 0.00 | 0.00 | 85 | 1019.6 |
| 20260506135743 | 57 | 210 | 0.0 | 0.9 | 0.00 | 0.00 | 0.00 | 86 | 1019.6 |
| 20260506135644 | 57 | 210 | 0.0 | 0.9 | 0.00 | 0.00 | 0.00 | 86 | 1019.6 |
| 20260506135543 | 57 | 212 | 0.0 | 0.9 | 0.00 | 0.00 | 0.00 | 86 | 1019.6 |
| 20260506135441 | 57 | 214 | 0.0 | 0.9 | 0.00 | 0.00 | 0.00 | 86 | 1019.5 |
| 20260506135339 | 57 | 214 | 0.0 | 0.9 | 0.00 | 0.00 | 0.00 | 86 | 1019.6 |
| 20260506135236 | 57 | 214 | 0.0 | 0.9 | 0.00 | 0.00 | 0.00 | 86 | 1019.6 |
| 20260506135135 | 57 | 214 | 0.0 | 1.7 | 0.00 | 0.00 | 0.00 | 86 | 1019.5 |
| 20260506135035 | 57 | 214 | 0.0 | 1.7 | 0.00 | 0.00 | 0.00 | 86 | 1019.5 |
| 20260506134933 | 57 | 214 | 0.0 | 1.7 | 0.00 | 0.00 | 0.00 | 86 | 1019.5 |
| 20260506134830 | 57 | 214 | 0.0 | 1.7 | 0.00 | 0.00 | 0.00 | 86 | 1019.5 |
| 20260506134727 | 57 | 214 | 0.0 | 1.7 | 0.00 | 0.00 | 0.00 | 86 | 1019.5 |
| 20260506134625 | 57 | 214 | 0.0 | 1.7 | 0.00 | 0.00 | 0.00 | 86 | 1019.4 |
| 20260506134525 | 57 | 214 | 0.0 | 1.7 | 0.00 | 0.00 | 0.00 | 86 | 1019.5 |
| 20260506134423 | 57 | 214 | 0.0 | 1.7 | 0.00 | 0.00 | 0.00 | 86 | 1019.4 |
| 20260506134324 | 57 | 214 | 0.9 | 1.7 | 0.00 | 0.00 | 0.00 | 86 | 1019.5 |
| 20260506134253 | 57 | 214 | 0.9 | 1.7 | 0.00 | 0.00 | 0.00 | 86 | 1019.5 |
| 20260506134219 | 57 | 214 | 0.0 | 1.7 | 0.00 | 0.00 | 0.00 | 86 | 1019.5 |
| 20260506134119 | 57 | 140 | 0.0 | 1.7 | 0.00 | 0.00 | 0.00 | 86 | 1019.4 |
| 20260506134019 | 57 | 139 | 0.9 | 1.7 | 0.00 | 0.00 | 0.00 | 86 | 1019.4 |
| 20260506133920 | 57 | 140 | 0.9 | 1.7 | 0.00 | 0.00 | 0.00 | 86 | 1019.5 |
| 20260506133819 | 57 | 139 | 0.0 | 1.7 | 0.00 | 0.00 | 0.00 | 86 | 1019.5 |
| 20260506133751 | 57 | 139 | 0.0 | 1.7 | 0.00 | 0.00 | 0.00 | 86 | 1019.5 |
| 20260506133719 | 57 | 110 | 0.0 | 1.7 | 0.00 | 0.00 | 0.00 | 86 | 1019.5 |
| 20260506133620 | 57 | 141 | 0.0 | 0.9 | 0.00 | 0.00 | 0.00 | 86 | 1019.5 |
| 20260506133519 | 57 | 155 | 0.0 | 0.9 | 0.00 | 0.00 | 0.00 | 86 | 1019.4 |
| 20260506133418 | 57 | 155 | 0.0 | 0.9 | 0.00 | 0.00 | 0.00 | 86 | 1019.5 |
| 20260506133317 | 57 | 158 | 0.0 | 0.9 | 0.00 | 0.00 | 0.00 | 86 | 1019.5 |
| 20260506133250 | 57 | 141 | 0.0 | 1.7 | 0.00 | 0.00 | 0.00 | 86 | 1019.5 |
| 20260506133218 | 57 | 141 | 0.0 | 1.7 | 0.00 | 0.00 | 0.00 | 86 | 1019.5 |
| 20260506133118 | 57 | 199 | 0.0 | 1.7 | 0.00 | 0.00 | 0.00 | 86 | 1019.5 |
| 20260506133021 | 57 | 198 | 0.0 | 1.7 | 0.00 | 0.00 | 0.00 | 86 | 1019.5 |
| 20260506132915 | 57 | 188 | 0.0 | 1.7 | 0.00 | 0.00 | 0.00 | 86 | 1019.5 |
| 20260506132815 | 57 | 188 | 0.0 | 1.7 | 0.00 | 0.00 | 0.00 | 86 | 1019.5 |
| 20260506132747 | 57 | 188 | 0.0 | 1.7 | 0.00 | 0.00 | 0.00 | 86 | 1019.5 |
| 20260506132715 | 57 | 192 | 0.0 | 1.7 | 0.00 | 0.00 | 0.00 | 86 | 1019.5 |
| 20260506132615 | 57 | 192 | 0.0 | 1.7 | 0.00 | 0.00 | 0.00 | 86 | 1019.5 |
| 20260506132515 | 57 | 207 | 0.0 | 1.7 | 0.00 | 0.00 | 0.00 | 86 | 1019.5 |
| 20260506132413 | 57 | 207 | 0.0 | 1.7 | 0.00 | 0.00 | 0.00 | 86 | 1019.5 |
| 20260506132313 | 57 | 158 | 0.0 | 1.7 | 0.00 | 0.00 | 0.00 | 86 | 1019.5 |
| 20260506132247 | 57 | 158 | 0.0 | 1.7 | 0.00 | 0.00 | 0.00 | 86 | 1019.5 |
| 20260506132213 | 57 | 158 | 0.0 | 1.7 | 0.00 | 0.00 | 0.00 | 86 | 1019.5 |
| 20260506132113 | 57 | 158 | 0.0 | 1.7 | 0.00 | 0.00 | 0.00 | 86 | 1019.5 |
| 20260506132013 | 57 | 158 | 0.0 | 1.7 | 0.00 | 0.00 | 0.00 | 86 | 1019.5 |
| 20260506131911 | 57 | 158 | 0.0 | 1.7 | 0.00 | 0.00 | 0.00 | 86 | 1019.5 |
| 20260506131812 | 57 | 158 | 0.9 | 1.7 | 0.00 | 0.00 | 0.00 | 86 | 1019.5 |
| 20260506131747 | 57 | 158 | 0.9 | 1.7 | 0.00 | 0.00 | 0.00 | 86 | 1019.5 |
| 20260506131709 | 57 | 158 | 0.9 | 1.7 | 0.00 | 0.00 | 0.00 | 86 | 1019.5 |
| 20260506131607 | 57 | 158 | 0.9 | 1.7 | 0.00 | 0.00 | 0.00 | 86 | 1019.5 |
| 20260506131511 | 57 | 215 | 0.0 | 1.7 | 0.00 | 0.00 | 0.00 | 86 | 1019.4 |
| 20260506131507 | 57 | 158 | 0.9 | 1.7 | 0.00 | 0.00 | 0.00 | 86 | 1019.5 |
| 20260506131406 | 57 | 158 | 0.9 | 1.7 | 0.00 | 0.00 | 0.00 | 86 | 1019.4 |
| 20260506131355 | 57 | 158 | 0.0 | 1.7 | 0.00 | 0.00 | 0.00 | 86 | 1019.4 |
| 20260506131204 | 57 | 133 | 0.0 | 1.7 | 0.00 | 0.00 | 0.00 | 86 | 1019.4 |
| 20260506131101 | 57 | 138 | 0.0 | 0.9 | 0.00 | 0.00 | 0.00 | 86 | 1019.5 |
| 20260506131007 | 57 | 139 | 0.0 | 0.9 | 0.00 | 0.00 | 0.00 | 86 | 1019.4 |
| 20260506130957 | 57 | 139 | 0.0 | 0.9 | 0.00 | 0.00 | 0.00 | 86 | 1019.5 |
| 20260506130902 | 57 | 138 | 0.0 | 0.9 | 0.00 | 0.00 | 0.00 | 86 | 1019.5 |
| 20260506130853 | 57 | 139 | 0.0 | 0.9 | 0.00 | 0.00 | 0.00 | 86 | 1019.5 |
| 20260506130655 | 57 | 139 | 0.0 | 0.9 | 0.00 | 0.00 | 0.00 | 86 | 1019.4 |
| 20260506130553 | 57 | 138 | 0.0 | 0.9 | 0.00 | 0.00 | 0.00 | 86 | 1019.4 |
| 20260506130453 | 57 | 138 | 0.0 | 0.9 | 0.00 | 0.00 | 0.00 | 86 | 1019.4 |
| 20260506130351 | 57 | 138 | 0.0 | 0.9 | 0.00 | 0.00 | 0.00 | 86 | 1019.4 |
| 20260506130244 | 57 | 138 | 0.0 | 0.9 | 0.00 | 0.00 | 0.00 | 86 | 1019.3 |
| 20260506130151 | 57 | 138 | 0.0 | 0.9 | 0.00 | 0.00 | 0.00 | 86 | 1019.4 |
| 20260506130051 | 57 | 139 | 0.0 | 0.9 | 0.00 | 0.00 | 0.00 | 86 | 1019.4 |
| 20260506125951 | 57 | 139 | 0.0 | 0.9 | 0.00 | 0.00 | 0.00 | 86 | 1019.4 |
| 20260506125849 | 57 | 138 | 0.0 | 0.9 | 0.00 | 0.00 | 0.00 | 86 | 1019.4 |
| 20260506125753 | 57 | 139 | 0.0 | 0.9 | 0.00 | 0.00 | 0.00 | 86 | 1019.4 |
| 20260506125742 | 57 | 138 | 0.0 | 0.9 | 0.00 | 0.00 | 0.00 | 86 | 1019.4 |
| 20260506125649 | 57 | 138 | 0.0 | 0.9 | 0.00 | 0.00 | 0.00 | 86 | 1019.4 |
| 20260506125547 | 57 | 138 | 0.0 | 0.9 | 0.00 | 0.00 | 0.00 | 86 | 1019.4 |
| 20260506125447 | 57 | 138 | 0.0 | 0.9 | 0.00 | 0.00 | 0.00 | 86 | 1019.4 |
| 20260506125348 | 57 | 139 | 0.0 | 0.9 | 0.00 | 0.00 | 0.00 | 86 | 1019.4 |
| 20260506125241 | 57 | 139 | 0.0 | 0.9 | 0.00 | 0.00 | 0.00 | 86 | 1019.3 |
| 20260506125148 | 57 | 139 | 0.0 | 1.7 | 0.00 | 0.00 | 0.00 | 86 | 1019.3 |
| 20260506125047 | 57 | 138 | 0.0 | 1.7 | 0.00 | 0.00 | 0.00 | 86 | 1019.3 |
| 20260506125010 | 57 | 138 | 0.9 | 1.7 | 0.00 | 0.00 | 0.00 | 86 | 1019.3 |
| 20260506124948 | 57 | 138 | 0.0 | 1.7 | 0.00 | 0.00 | 0.00 | 86 | 1019.3 |
| 20260506124901 | 57 | 138 | 0.9 | 1.7 | 0.00 | 0.00 | 0.00 | 86 | 1019.3 |
| 20260506124850 | 57 | 138 | 0.9 | 1.7 | 0.00 | 0.00 | 0.00 | 86 | 1019.3 |
| 20260506124641 | 57 | 139 | 0.9 | 1.7 | 0.00 | 0.00 | 0.00 | 86 | 1019.3 |
| 20260506124541 | 57 | 139 | 0.9 | 2.6 | 0.00 | 0.00 | 0.00 | 86 | 1019.3 |
| 20260506124439 | 57 | 138 | 0.9 | 2.6 | 0.00 | 0.00 | 0.00 | 86 | 1019.3 |
| 20260506124340 | 57 | 138 | 0.9 | 2.6 | 0.00 | 0.00 | 0.00 | 86 | 1019.3 |
| 20260506124243 | 57 | 138 | 0.9 | 2.6 | 0.00 | 0.00 | 0.00 | 86 | 1019.2 |
| 20260506124237 | 57 | 139 | 0.9 | 2.6 | 0.00 | 0.00 | 0.00 | 86 | 1019.2 |
| 20260506124133 | 57 | 139 | 0.9 | 2.6 | 0.00 | 0.00 | 0.00 | 86 | 1019.3 |
| 20260506124033 | 57 | 139 | 0.9 | 2.6 | 0.00 | 0.00 | 0.00 | 86 | 1019.2 |
| 20260506123934 | 57 | 126 | 0.0 | 2.6 | 0.00 | 0.00 | 0.00 | 86 | 1019.2 |
| 20260506123833 | 57 | 120 | 0.0 | 2.6 | 0.00 | 0.00 | 0.00 | 86 | 1019.2 |
| 20260506123739 | 57 | 136 | 0.0 | 2.6 | 0.00 | 0.00 | 0.00 | 86 | 1019.2 |
| 20260506123728 | 57 | 141 | 0.0 | 2.6 | 0.00 | 0.00 | 0.00 | 86 | 1019.2 |
| 20260506123627 | 57 | 135 | 0.0 | 2.6 | 0.00 | 0.00 | 0.00 | 86 | 1019.2 |
| 20260506123527 | 57 | 124 | 0.0 | 2.6 | 0.00 | 0.00 | 0.00 | 86 | 1019.2 |
| 20260506123427 | 57 | 124 | 0.0 | 2.6 | 0.00 | 0.00 | 0.00 | 86 | 1019.2 |
| 20260506123325 | 57 | 124 | 0.9 | 2.6 | 0.00 | 0.00 | 0.00 | 86 | 1019.2 |
| 20260506123221 | 57 | 124 | 0.9 | 2.6 | 0.00 | 0.00 | 0.00 | 86 | 1019.2 |
| 20260506123121 | 57 | 124 | 0.9 | 2.6 | 0.00 | 0.00 | 0.00 | 86 | 1019.1 |
| 20260506123021 | 57 | 124 | 0.9 | 2.6 | 0.00 | 0.00 | 0.00 | 86 | 1019.2 |
| 20260506122922 | 57 | 124 | 0.9 | 2.6 | 0.00 | 0.00 | 0.00 | 86 | 1019.1 |
| 20260506122819 | 57 | 124 | 0.9 | 2.6 | 0.00 | 0.00 | 0.00 | 86 | 1019.1 |
| 20260506122715 | 57 | 124 | 0.9 | 2.6 | 0.00 | 0.00 | 0.00 | 86 | 1019.1 |
| 20260506122616 | 57 | 127 | 0.0 | 2.6 | 0.00 | 0.00 | 0.00 | 86 | 1019.1 |
| 20260506122516 | 57 | 136 | 0.0 | 2.6 | 0.00 | 0.00 | 0.00 | 86 | 1019.1 |
| 20260506122454 | 57 | 225 | 0.0 | 1.7 | 0.00 | 0.00 | 0.00 | 86 | 1019.1 |
| 20260506122413 | 57 | 140 | 0.0 | 2.6 | 0.00 | 0.00 | 0.00 | 86 | 1019.1 |
| 20260506122349 | 57 | 218 | 0.0 | 1.7 | 0.00 | 0.00 | 0.00 | 86 | 1019.1 |
| 20260506122208 | 57 | 225 | 0.0 | 1.7 | 0.00 | 0.00 | 0.00 | 86 | 1019.1 |
| 20260506122105 | 57 | 225 | 0.0 | 1.7 | 0.00 | 0.00 | 0.00 | 86 | 1019.1 |
| 20260506122005 | 57 | 225 | 0.0 | 1.7 | 0.00 | 0.00 | 0.00 | 86 | 1019.1 |
| 20260506121903 | 57 | 225 | 0.0 | 1.7 | 0.00 | 0.00 | 0.00 | 86 | 1019.1 |
| 20260506121804 | 57 | 225 | 0.0 | 1.7 | 0.00 | 0.00 | 0.00 | 86 | 1019.1 |
| 20260506121736 | 57 | 225 | 0.9 | 1.7 | 0.00 | 0.00 | 0.00 | 86 | 1019.1 |
| 20260506121659 | 57 | 225 | 0.9 | 1.7 | 0.00 | 0.00 | 0.00 | 86 | 1019.1 |
| 20260506121559 | 57 | 225 | 0.9 | 1.7 | 0.00 | 0.00 | 0.00 | 86 | 1019.0 |
| 20260506121459 | 57 | 160 | 0.9 | 1.7 | 0.00 | 0.00 | 0.00 | 86 | 1019.0 |
| 20260506121359 | 57 | 160 | 0.9 | 1.7 | 0.00 | 0.00 | 0.00 | 86 | 1019.1 |
| 20260506121257 | 57 | 161 | 0.9 | 1.7 | 0.00 | 0.00 | 0.00 | 85 | 1019.1 |
| 20260506121235 | 57 | 160 | 0.9 | 1.7 | 0.00 | 0.00 | 0.00 | 85 | 1019.1 |
| 20260506121158 | 57 | 160 | 0.9 | 1.7 | 0.00 | 0.00 | 0.00 | 85 | 1019.1 |
| 20260506121051 | 57 | 159 | 0.9 | 1.7 | 0.00 | 0.00 | 0.00 | 85 | 1019.1 |
| 20260506120952 | 57 | 127 | 0.9 | 1.7 | 0.00 | 0.00 | 0.00 | 85 | 1019.1 |
| 20260506120851 | 57 | 127 | 0.9 | 1.7 | 0.00 | 0.00 | 0.00 | 85 | 1019.1 |
| 20260506120734 | 57 | 131 | 0.0 | 1.7 | 0.00 | 0.00 | 0.00 | 85 | 1019.1 |
| 20260506120647 | 57 | 134 | 0.0 | 1.7 | 0.00 | 0.00 | 0.00 | 85 | 1019.1 |
| 20260506120547 | 57 | 133 | 0.0 | 1.7 | 0.00 | 0.00 | 0.00 | 85 | 1019.0 |
| 20260506120452 | 57 | 150 | 0.0 | 0.9 | 0.00 | 0.00 | 0.00 | 85 | 1019.0 |
| 20260506120445 | 57 | 133 | 0.0 | 1.7 | 0.00 | 0.00 | 0.00 | 85 | 1019.0 |
| 20260506120352 | 57 | 124 | 0.0 | 1.7 | 0.00 | 0.00 | 0.00 | 85 | 1019.0 |
| 20260506120344 | 57 | 150 | 0.0 | 0.9 | 0.00 | 0.00 | 0.00 | 85 | 1019.0 |
| 20260506120139 | 57 | 150 | 0.0 | 0.9 | 0.00 | 0.00 | 0.00 | 85 | 1018.9 |
| 20260506120039 | 57 | 149 | 0.0 | 0.9 | 0.00 | 0.00 | 0.00 | 85 | 1018.9 |
| 20260506115940 | 57 | 150 | 0.0 | 0.9 | 0.00 | 0.00 | 0.00 | 85 | 1019.0 |
| 20260506115839 | 57 | 150 | 0.0 | 0.9 | 0.00 | 0.00 | 0.00 | 85 | 1019.0 |
| 20260506115732 | 57 | 150 | 0.0 | 0.9 | 0.00 | 0.00 | 0.00 | 85 | 1019.0 |
| 20260506115639 | 57 | 150 | 0.0 | 0.9 | 0.00 | 0.00 | 0.00 | 85 | 1019.0 |
| 20260506115540 | 57 | 149 | 0.0 | 0.9 | 0.00 | 0.00 | 0.00 | 85 | 1019.0 |
| 20260506115439 | 57 | 149 | 0.0 | 0.9 | 0.00 | 0.00 | 0.00 | 85 | 1019.0 |
| 20260506115340 | 57 | 150 | 0.0 | 0.9 | 0.00 | 0.00 | 0.00 | 85 | 1019.1 |
| 20260506115244 | 57 | 150 | 0.0 | 0.9 | 0.00 | 0.00 | 0.00 | 85 | 1019.1 |
| 20260506115234 | 57 | 149 | 0.0 | 0.9 | 0.00 | 0.00 | 0.00 | 85 | 1019.1 |
| 20260506115139 | 57 | 152 | 0.0 | 1.7 | 0.00 | 0.00 | 0.00 | 85 | 1019.1 |
| 20260506115037 | 57 | 129 | 0.0 | 1.7 | 0.00 | 0.00 | 0.00 | 85 | 1019.1 |
| 20260506114937 | 57 | 127 | 0.0 | 1.7 | 0.00 | 0.00 | 0.00 | 85 | 1019.0 |
| 20260506114835 | 57 | 127 | 0.0 | 1.7 | 0.00 | 0.00 | 0.00 | 85 | 1019.0 |
| 20260506114733 | 57 | 127 | 0.0 | 1.7 | 0.00 | 0.00 | 0.00 | 85 | 1019.0 |
| 20260506114633 | 57 | 127 | 0.0 | 1.7 | 0.00 | 0.00 | 0.00 | 85 | 1019.0 |
| 20260506114531 | 57 | 127 | 0.0 | 1.7 | 0.00 | 0.00 | 0.00 | 85 | 1018.9 |
| 20260506114431 | 57 | 120 | 0.0 | 1.7 | 0.00 | 0.00 | 0.00 | 85 | 1019.0 |
| 20260506114331 | 57 | 120 | 0.0 | 1.7 | 0.00 | 0.00 | 0.00 | 85 | 1019.0 |
| 20260506114233 | 57 | 120 | 0.0 | 1.7 | 0.00 | 0.00 | 0.00 | 85 | 1019.0 |
| 20260506114131 | 57 | 228 | 0.0 | 0.9 | 0.00 | 0.00 | 0.00 | 85 | 1019.0 |
| 20260506114032 | 57 | 228 | 0.0 | 1.7 | 0.00 | 0.00 | 0.00 | 85 | 1019.0 |
| 20260506113926 | 57 | 228 | 0.0 | 1.7 | 0.00 | 0.00 | 0.00 | 85 | 1019.0 |
| 20260506113825 | 57 | 228 | 0.0 | 1.7 | 0.00 | 0.00 | 0.00 | 85 | 1018.9 |
| 20260506113725 | 57 | 228 | 0.0 | 1.7 | 0.00 | 0.00 | 0.00 | 85 | 1018.9 |
| 20260506113622 | 57 | 193 | 0.0 | 1.7 | 0.00 | 0.00 | 0.00 | 85 | 1018.9 |
| 20260506113526 | 57 | 193 | 0.0 | 1.7 | 0.00 | 0.00 | 0.00 | 85 | 1018.9 |
| 20260506113423 | 57 | 193 | 0.0 | 1.7 | 0.00 | 0.00 | 0.00 | 85 | 1018.9 |
| 20260506113322 | 57 | 193 | 0.0 | 1.7 | 0.00 | 0.00 | 0.00 | 85 | 1018.9 |
| 20260506113236 | 57 | 192 | 0.0 | 1.7 | 0.00 | 0.00 | 0.00 | 85 | 1018.8 |
| 20260506113221 | 57 | 193 | 0.0 | 1.7 | 0.00 | 0.00 | 0.00 | 85 | 1018.8 |
| 20260506113120 | 57 | 194 | 0.0 | 1.7 | 0.00 | 0.00 | 0.00 | 85 | 1018.9 |
| 20260506113018 | 57 | 183 | 0.0 | 0.9 | 0.00 | 0.00 | 0.00 | 85 | 1018.9 |
| 20260506112913 | 57 | 186 | 0.0 | 0.9 | 0.00 | 0.00 | 0.00 | 85 | 1018.9 |
| 20260506112811 | 57 | 186 | 0.0 | 1.7 | 0.00 | 0.00 | 0.00 | 85 | 1018.8 |
| 20260506112711 | 57 | 186 | 0.0 | 1.7 | 0.00 | 0.00 | 0.00 | 85 | 1018.8 |
| 20260506112611 | 57 | 186 | 0.0 | 1.7 | 0.00 | 0.00 | 0.00 | 85 | 1018.8 |
| 20260506112509 | 57 | 186 | 0.0 | 1.7 | 0.00 | 0.00 | 0.00 | 85 | 1018.8 |
| 20260506112409 | 57 | 186 | 0.0 | 1.7 | 0.00 | 0.00 | 0.00 | 85 | 1018.8 |
| 20260506112308 | 57 | 186 | 0.0 | 1.7 | 0.00 | 0.00 | 0.00 | 85 | 1018.7 |
| 20260506112234 | 57 | 186 | 0.0 | 1.7 | 0.00 | 0.00 | 0.00 | 85 | 1018.7 |
| 20260506112207 | 57 | 187 | 0.0 | 1.7 | 0.00 | 0.00 | 0.00 | 85 | 1018.7 |
| 20260506112106 | 57 | 204 | 0.0 | 1.7 | 0.00 | 0.00 | 0.00 | 85 | 1018.7 |
| 20260506112004 | 57 | 204 | 0.0 | 2.6 | 0.00 | 0.00 | 0.00 | 85 | 1018.7 |
| 20260506111858 | 57 | 204 | 0.0 | 2.6 | 0.00 | 0.00 | 0.00 | 85 | 1018.7 |
| 20260506111732 | 57 | 253 | 0.9 | 2.6 | 0.00 | 0.00 | 0.00 | 85 | 1018.8 |
| 20260506111659 | 57 | 253 | 0.9 | 2.6 | 0.00 | 0.00 | 0.00 | 85 | 1018.8 |
| 20260506111557 | 57 | 253 | 0.9 | 2.6 | 0.00 | 0.00 | 0.00 | 85 | 1018.7 |
| 20260506111456 | 57 | 253 | 0.9 | 2.6 | 0.00 | 0.00 | 0.00 | 85 | 1018.7 |
| 20260506111231 | 57 | 253 | 0.9 | 3.5 | 0.00 | 0.00 | 0.00 | 85 | 1018.7 |
| 20260506111149 | 57 | 253 | 0.9 | 3.5 | 0.00 | 0.00 | 0.00 | 85 | 1018.7 |
| 20260506111048 | 57 | 253 | 0.9 | 3.5 | 0.00 | 0.00 | 0.00 | 85 | 1018.7 |
| 20260506110947 | 57 | 144 | 0.9 | 3.5 | 0.00 | 0.00 | 0.00 | 85 | 1018.6 |
| 20260506110841 | 57 | 162 | 0.9 | 3.5 | 0.00 | 0.00 | 0.00 | 85 | 1018.6 |
| 20260506110743 | 57 | 226 | 0.9 | 3.5 | 0.00 | 0.00 | 0.00 | 85 | 1018.5 |
| 20260506110641 | 57 | 226 | 0.9 | 3.5 | 0.00 | 0.00 | 0.00 | 85 | 1018.5 |
| 20260506110541 | 57 | 233 | 0.9 | 3.5 | 0.00 | 0.00 | 0.00 | 85 | 1018.5 |
| 20260506110441 | 57 | 229 | 0.9 | 3.5 | 0.00 | 0.00 | 0.00 | 85 | 1018.5 |
| 20260506110335 | 57 | 262 | 0.9 | 3.5 | 0.00 | 0.00 | 0.00 | 85 | 1018.5 |
| 20260506110241 | 57 | 168 | 0.9 | 2.6 | 0.00 | 0.00 | 0.00 | 85 | 1018.5 |
| 20260506110231 | 57 | 167 | 0.9 | 2.6 | 0.00 | 0.00 | 0.00 | 85 | 1018.5 |
| 20260506110136 | 57 | 167 | 1.7 | 2.6 | 0.00 | 0.00 | 0.00 | 85 | 1018.5 |
| 20260506110034 | 57 | 167 | 1.7 | 2.6 | 0.00 | 0.00 | 0.00 | 85 | 1018.5 |
| 20260506105933 | 57 | 168 | 1.7 | 2.6 | 0.00 | 0.00 | 0.00 | 85 | 1018.6 |
| 20260506105829 | 57 | 221 | 1.7 | 2.6 | 0.00 | 0.00 | 0.00 | 85 | 1018.6 |
| 20260506105732 | 57 | 160 | 1.7 | 2.6 | 0.00 | 0.00 | 0.00 | 85 | 1018.6 |
| 20260506105629 | 57 | 203 | 1.7 | 2.6 | 0.00 | 0.00 | 0.00 | 85 | 1018.5 |
| 20260506105529 | 57 | 197 | 1.7 | 2.6 | 0.00 | 0.00 | 0.00 | 85 | 1018.5 |
| 20260506105427 | 57 | 207 | 1.7 | 2.6 | 0.00 | 0.00 | 0.00 | 85 | 1018.5 |
| 20260506105323 | 57 | 215 | 0.9 | 2.6 | 0.00 | 0.00 | 0.00 | 85 | 1018.5 |
| 20260506105229 | 57 | 146 | 0.9 | 2.6 | 0.00 | 0.00 | 0.00 | 85 | 1018.5 |
| 20260506105223 | 57 | 142 | 0.9 | 2.6 | 0.00 | 0.00 | 0.00 | 85 | 1018.5 |
| 20260506105124 | 57 | 188 | 0.9 | 2.6 | 0.00 | 0.00 | 0.00 | 84 | 1018.5 |
| 20260506105021 | 57 | 225 | 0.9 | 2.6 | 0.00 | 0.00 | 0.00 | 84 | 1018.5 |
| 20260506104919 | 57 | 215 | 0.9 | 2.6 | 0.00 | 0.00 | 0.00 | 84 | 1018.5 |
| 20260506104815 | 57 | 212 | 0.9 | 2.6 | 0.00 | 0.00 | 0.00 | 85 | 1018.4 |
| 20260506104723 | 57 | 217 | 0.9 | 2.6 | 0.00 | 0.00 | 0.00 | 85 | 1018.4 |
| 20260506104713 | 57 | 193 | 0.9 | 2.6 | 0.00 | 0.00 | 0.00 | 85 | 1018.4 |
| 20260506104615 | 57 | 221 | 0.9 | 1.7 | 0.00 | 0.00 | 0.00 | 85 | 1018.4 |
| 20260506104602 | 57 | 217 | 0.9 | 2.6 | 0.00 | 0.00 | 0.00 | 85 | 1018.4 |
| 20260506104411 | 57 | 217 | 0.9 | 2.6 | 0.00 | 0.00 | 0.00 | 85 | 1018.4 |
| 20260506104336 | 57 | 217 | 0.9 | 2.6 | 0.00 | 0.00 | 0.00 | 85 | 1018.4 |
| 20260506104209 | 57 | 217 | 0.9 | 2.6 | 0.00 | 0.00 | 0.00 | 85 | 1018.4 |
| 20260506104107 | 57 | 227 | 0.9 | 2.6 | 0.00 | 0.00 | 0.00 | 85 | 1018.4 |
| 20260506104008 | 57 | 228 | 0.9 | 2.6 | 0.00 | 0.00 | 0.00 | 85 | 1018.4 |
| 20260506103904 | 57 | 228 | 0.9 | 2.6 | 0.00 | 0.00 | 0.00 | 85 | 1018.4 |
| 20260506103759 | 57 | 228 | 0.9 | 2.6 | 0.00 | 0.00 | 0.00 | 85 | 1018.4 |
| 20260506103730 | 57 | 231 | 0.9 | 2.6 | 0.00 | 0.00 | 0.00 | 84 | 1018.4 |
| 20260506103659 | 57 | 230 | 0.9 | 2.6 | 0.00 | 0.00 | 0.00 | 85 | 1018.4 |
| 20260506103559 | 57 | 199 | 0.9 | 2.6 | 0.00 | 0.00 | 0.00 | 84 | 1018.4 |
| 20260506103458 | 57 | 195 | 0.0 | 2.6 | 0.00 | 0.00 | 0.00 | 85 | 1018.4 |
| 20260506103357 | 57 | 156 | 0.0 | 1.7 | 0.00 | 0.00 | 0.00 | 85 | 1018.4 |
| 20260506103255 | 57 | 136 | 0.0 | 1.7 | 0.00 | 0.00 | 0.00 | 85 | 1018.4 |
| 20260506103230 | 57 | 134 | 0.0 | 1.7 | 0.00 | 0.00 | 0.00 | 85 | 1018.4 |
| 20260506103155 | 57 | 153 | 0.0 | 1.7 | 0.00 | 0.00 | 0.00 | 85 | 1018.4 |
| 20260506103053 | 57 | 134 | 0.0 | 1.7 | 0.00 | 0.00 | 0.00 | 85 | 1018.4 |
| 20260506102953 | 57 | 206 | 0.0 | 1.7 | 0.00 | 0.00 | 0.00 | 85 | 1018.4 |
| 20260506102851 | 57 | 205 | 0.0 | 1.7 | 0.00 | 0.00 | 0.00 | 85 | 1018.4 |
| 20260506102747 | 57 | 206 | 0.0 | 1.7 | 0.00 | 0.00 | 0.00 | 85 | 1018.4 |
| 20260506102730 | 57 | 205 | 0.9 | 1.7 | 0.00 | 0.00 | 0.00 | 85 | 1018.4 |
| 20260506102645 | 57 | 205 | 0.9 | 1.7 | 0.00 | 0.00 | 0.00 | 85 | 1018.4 |
| 20260506102546 | 57 | 207 | 0.9 | 1.7 | 0.00 | 0.00 | 0.00 | 85 | 1018.4 |
| 20260506102445 | 57 | 219 | 0.9 | 1.7 | 0.00 | 0.00 | 0.00 | 84 | 1018.3 |
| 20260506102343 | 57 | 219 | 0.9 | 1.7 | 0.00 | 0.00 | 0.00 | 85 | 1018.3 |
| 20260506102243 | 57 | 200 | 0.9 | 1.7 | 0.00 | 0.00 | 0.00 | 85 | 1018.3 |
| 20260506102231 | 57 | 163 | 0.9 | 1.7 | 0.00 | 0.00 | 0.00 | 85 | 1018.3 |
| 20260506102143 | 57 | 145 | 0.9 | 1.7 | 0.00 | 0.00 | 0.00 | 85 | 1018.3 |
| 20260506102043 | 57 | 229 | 0.9 | 1.7 | 0.00 | 0.00 | 0.00 | 84 | 1018.3 |
| 20260506101943 | 57 | 229 | 0.9 | 1.7 | 0.00 | 0.00 | 0.00 | 85 | 1018.3 |
| 20260506101844 | 57 | 229 | 0.9 | 1.7 | 0.00 | 0.00 | 0.00 | 84 | 1018.3 |
| 20260506101728 | 57 | 229 | 0.9 | 1.7 | 0.00 | 0.00 | 0.00 | 84 | 1018.3 |
| 20260506101641 | 57 | 229 | 0.9 | 1.7 | 0.00 | 0.00 | 0.00 | 84 | 1018.2 |
| 20260506101542 | 57 | 135 | 0.9 | 1.7 | 0.00 | 0.00 | 0.00 | 84 | 1018.2 |
| 20260506101441 | 57 | 135 | 0.9 | 1.7 | 0.00 | 0.00 | 0.00 | 84 | 1018.2 |
| 20260506101341 | 57 | 136 | 0.9 | 1.7 | 0.00 | 0.00 | 0.00 | 84 | 1018.2 |
| 20260506101231 | 57 | 145 | 0.9 | 1.7 | 0.00 | 0.00 | 0.00 | 84 | 1018.2 |
| 20260506101139 | 57 | 146 | 0.9 | 1.7 | 0.00 | 0.00 | 0.00 | 84 | 1018.2 |
| 20260506101039 | 57 | 146 | 0.9 | 1.7 | 0.00 | 0.00 | 0.00 | 84 | 1018.3 |
| 20260506100939 | 57 | 146 | 0.9 | 2.6 | 0.00 | 0.00 | 0.00 | 84 | 1018.2 |
| 20260506100839 | 57 | 181 | 0.9 | 2.6 | 0.00 | 0.00 | 0.00 | 84 | 1018.2 |
| 20260506100739 | 57 | 210 | 0.9 | 2.6 | 0.00 | 0.00 | 0.00 | 84 | 1018.2 |
| 20260506100727 | 57 | 211 | 0.9 | 2.6 | 0.00 | 0.00 | 0.00 | 84 | 1018.2 |
| 20260506100639 | 57 | 207 | 0.9 | 2.6 | 0.00 | 0.00 | 0.00 | 84 | 1018.2 |
| 20260506100551 | 57 | 207 | 0.9 | 2.6 | 0.00 | 0.00 | 0.00 | 84 | 1018.2 |
| 20260506100457 | 57 | 207 | 0.9 | 3.5 | 0.00 | 0.00 | 0.00 | 84 | 1018.2 |
| 20260506100433 | 57 | 207 | 0.9 | 3.5 | 0.00 | 0.00 | 0.00 | 84 | 1018.2 |
| 20260506100354 | 57 | 207 | 0.9 | 3.5 | 0.00 | 0.00 | 0.00 | 84 | 1018.2 |
| 20260506100346 | 57 | 207 | 0.9 | 3.5 | 0.00 | 0.00 | 0.00 | 84 | 1018.2 |
| 20260506100131 | 57 | 200 | 0.9 | 3.5 | 0.00 | 0.00 | 0.00 | 84 | 1018.2 |
| 20260506100032 | 57 | 200 | 0.9 | 3.5 | 0.00 | 0.00 | 0.00 | 84 | 1018.3 |
| 20260506095929 | 57 | 221 | 0.9 | 3.5 | 0.00 | 0.00 | 0.00 | 84 | 1018.2 |
| 20260506095827 | 57 | 212 | 0.9 | 3.5 | 0.00 | 0.00 | 0.00 | 84 | 1018.2 |
| 20260506095729 | 57 | 228 | 0.9 | 3.5 | 0.00 | 0.00 | 0.00 | 84 | 1018.2 |
| 20260506095624 | 57 | 214 | 0.9 | 3.5 | 0.00 | 0.00 | 0.00 | 84 | 1018.2 |
| 20260506095520 | 57 | 214 | 0.9 | 3.5 | 0.00 | 0.00 | 0.00 | 84 | 1018.2 |
| 20260506095450 | 57 | 222 | 0.0 | 1.7 | 0.00 | 0.00 | 0.00 | 84 | 1018.2 |
| 20260506095419 | 57 | 214 | 0.0 | 1.7 | 0.00 | 0.00 | 0.00 | 84 | 1018.2 |
| 20260506095338 | 57 | 222 | 0.0 | 1.7 | 0.00 | 0.00 | 0.00 | 84 | 1018.2 |
| 20260506095219 | 57 | 222 | 0.0 | 1.7 | 0.00 | 0.00 | 0.00 | 84 | 1018.2 |
| 20260506095117 | 57 | 226 | 0.0 | 1.7 | 0.00 | 0.00 | 0.00 | 84 | 1018.2 |
| 20260506095017 | 57 | 226 | 0.0 | 1.7 | 0.00 | 0.00 | 0.00 | 84 | 1018.2 |
| 20260506094941 | 57 | 200 | 0.0 | 1.7 | 0.00 | 0.00 | 0.00 | 84 | 1018.2 |
| 20260506094916 | 57 | 200 | 0.0 | 1.7 | 0.00 | 0.00 | 0.00 | 84 | 1018.2 |
| 20260506094833 | 57 | 200 | 0.0 | 1.7 | 0.00 | 0.00 | 0.00 | 84 | 1018.2 |
| 20260506094713 | 57 | 200 | 0.0 | 1.7 | 0.00 | 0.00 | 0.00 | 84 | 1018.2 |
| 20260506094611 | 57 | 200 | 0.0 | 1.7 | 0.00 | 0.00 | 0.00 | 84 | 1018.2 |
| 20260506094510 | 57 | 200 | 0.0 | 1.7 | 0.00 | 0.00 | 0.00 | 84 | 1018.2 |
| 20260506094409 | 57 | 200 | 0.0 | 1.7 | 0.00 | 0.00 | 0.00 | 84 | 1018.2 |
| 20260506094309 | 57 | 200 | 0.0 | 1.7 | 0.00 | 0.00 | 0.00 | 84 | 1018.2 |
| 20260506094209 | 57 | 200 | 0.9 | 1.7 | 0.00 | 0.00 | 0.00 | 84 | 1018.2 |
| 20260506094109 | 57 | 200 | 0.9 | 1.7 | 0.00 | 0.00 | 0.00 | 84 | 1018.2 |
| 20260506094009 | 57 | 229 | 0.9 | 1.7 | 0.00 | 0.00 | 0.00 | 84 | 1018.2 |
| 20260506093809 | 57 | 141 | 0.9 | 2.6 | 0.00 | 0.00 | 0.00 | 84 | 1018.2 |
| 20260506093721 | 57 | 231 | 0.9 | 2.6 | 0.00 | 0.00 | 0.00 | 84 | 1018.2 |
| 20260506093707 | 57 | 235 | 0.9 | 2.6 | 0.00 | 0.00 | 0.00 | 84 | 1018.2 |
| 20260506093607 | 57 | 235 | 0.9 | 2.6 | 0.00 | 0.00 | 0.00 | 84 | 1018.2 |
| 20260506093507 | 57 | 235 | 0.9 | 2.6 | 0.00 | 0.00 | 0.00 | 84 | 1018.2 |
| 20260506093405 | 57 | 235 | 0.9 | 2.6 | 0.00 | 0.00 | 0.00 | 84 | 1018.3 |
| 20260506093306 | 57 | 235 | 0.9 | 2.6 | 0.00 | 0.00 | 0.00 | 84 | 1018.2 |
| 20260506093222 | 57 | 235 | 0.9 | 2.6 | 0.00 | 0.00 | 0.00 | 84 | 1018.3 |
| 20260506093204 | 57 | 240 | 0.9 | 2.6 | 0.00 | 0.00 | 0.00 | 84 | 1018.3 |
| 20260506093103 | 57 | 240 | 0.9 | 2.6 | 0.00 | 0.00 | 0.00 | 84 | 1018.2 |
| 20260506093001 | 57 | 242 | 0.9 | 3.5 | 0.00 | 0.00 | 0.00 | 84 | 1018.2 |
| 20260506092859 | 57 | 155 | 0.9 | 3.5 | 0.00 | 0.00 | 0.00 | 84 | 1018.2 |
| 20260506092759 | 57 | 232 | 0.9 | 3.5 | 0.00 | 0.00 | 0.00 | 84 | 1018.2 |
| 20260506092721 | 57 | 233 | 0.9 | 3.5 | 0.00 | 0.00 | 0.00 | 84 | 1018.2 |
| 20260506092700 | 57 | 233 | 0.9 | 3.5 | 0.00 | 0.00 | 0.00 | 84 | 1018.2 |
| 20260506092559 | 57 | 233 | 0.9 | 3.5 | 0.00 | 0.00 | 0.00 | 84 | 1018.2 |
| 20260506092459 | 57 | 232 | 0.9 | 3.5 | 0.00 | 0.00 | 0.00 | 84 | 1018.2 |
| 20260506092359 | 57 | 232 | 0.9 | 3.5 | 0.00 | 0.00 | 0.00 | 84 | 1018.2 |
| 20260506092253 | 57 | 233 | 0.9 | 3.5 | 0.00 | 0.00 | 0.00 | 84 | 1018.2 |
| 20260506092215 | 57 | 157 | 0.9 | 3.5 | 0.00 | 0.00 | 0.00 | 84 | 1018.1 |
| 20260506092153 | 57 | 156 | 0.9 | 3.5 | 0.00 | 0.00 | 0.00 | 84 | 1018.1 |
| 20260506092053 | 57 | 156 | 0.9 | 3.5 | 0.00 | 0.00 | 0.00 | 84 | 1018.2 |
| 20260506091951 | 57 | 233 | 0.9 | 3.5 | 0.00 | 0.00 | 0.00 | 84 | 1018.2 |
| 20260506091851 | 57 | 233 | 0.9 | 3.5 | 0.00 | 0.00 | 0.00 | 84 | 1018.2 |
| 20260506091747 | 57 | 232 | 0.9 | 3.5 | 0.00 | 0.00 | 0.00 | 84 | 1018.1 |
| 20260506091712 | 57 | 232 | 0.9 | 3.5 | 0.00 | 0.00 | 0.00 | 84 | 1018.2 |
| 20260506091647 | 57 | 215 | 0.9 | 3.5 | 0.00 | 0.00 | 0.00 | 84 | 1018.2 |
| 20260506091547 | 57 | 215 | 0.9 | 3.5 | 0.00 | 0.00 | 0.00 | 84 | 1018.1 |
| 20260506091447 | 57 | 215 | 0.9 | 3.5 | 0.00 | 0.00 | 0.00 | 84 | 1018.2 |
| 20260506091345 | 57 | 215 | 0.9 | 3.5 | 0.00 | 0.00 | 0.00 | 84 | 1018.1 |
| 20260506091242 | 57 | 193 | 0.9 | 3.5 | 0.00 | 0.00 | 0.00 | 84 | 1018.2 |
| 20260506091213 | 57 | 243 | 0.9 | 3.5 | 0.00 | 0.00 | 0.00 | 84 | 1018.2 |
| 20260506091140 | 57 | 226 | 0.9 | 3.5 | 0.00 | 0.00 | 0.00 | 84 | 1018.2 |
| 20260506091039 | 57 | 221 | 0.9 | 2.6 | 0.00 | 0.00 | 0.00 | 84 | 1018.2 |
| 20260506090937 | 57 | 147 | 0.9 | 1.7 | 0.00 | 0.00 | 0.00 | 84 | 1018.2 |
| 20260506090838 | 57 | 163 | 0.9 | 1.7 | 0.00 | 0.00 | 0.00 | 84 | 1018.2 |
| 20260506090733 | 57 | 222 | 0.9 | 1.7 | 0.00 | 0.00 | 0.00 | 84 | 1018.2 |
| 20260506090710 | 57 | 221 | 0.9 | 1.7 | 0.00 | 0.00 | 0.00 | 83 | 1018.2 |
| 20260506090634 | 57 | 222 | 0.9 | 1.7 | 0.00 | 0.00 | 0.00 | 83 | 1018.1 |
| 20260506090533 | 58 | 221 | 0.9 | 2.6 | 0.00 | 0.00 | 0.00 | 84 | 1018.2 |
| 20260506090433 | 58 | 212 | 0.9 | 2.6 | 0.00 | 0.00 | 0.00 | 84 | 1018.1 |
| 20260506090331 | 58 | 212 | 0.9 | 2.6 | 0.00 | 0.00 | 0.00 | 83 | 1018.1 |
| 20260506090208 | 58 | 204 | 0.9 | 2.6 | 0.00 | 0.00 | 0.00 | 83 | 1018.1 |
| 20260506090127 | 58 | 205 | 0.9 | 2.6 | 0.00 | 0.00 | 0.00 | 83 | 1018.2 |
| 20260506090028 | 58 | 198 | 0.9 | 2.6 | 0.00 | 0.00 | 0.00 | 83 | 1018.2 |
| 20260506085925 | 58 | 233 | 0.9 | 2.6 | 0.00 | 0.00 | 0.00 | 83 | 1018.2 |
| 20260506085823 | 58 | 217 | 0.9 | 2.6 | 0.00 | 0.00 | 0.00 | 83 | 1018.2 |
| 20260506085710 | 58 | 217 | 0.9 | 2.6 | 0.00 | 0.00 | 0.00 | 83 | 1018.2 |
| 20260506085617 | 58 | 194 | 0.9 | 2.6 | 0.00 | 0.00 | 0.00 | 83 | 1018.2 |
| 20260506085517 | 58 | 194 | 0.9 | 2.6 | 0.00 | 0.00 | 0.00 | 83 | 1018.3 |
| 20260506085415 | 58 | 225 | 0.9 | 3.5 | 0.00 | 0.00 | 0.00 | 83 | 1018.2 |
| 20260506085315 | 58 | 226 | 0.9 | 3.5 | 0.00 | 0.00 | 0.00 | 83 | 1018.2 |
| 20260506085209 | 58 | 226 | 0.9 | 3.5 | 0.00 | 0.00 | 0.00 | 83 | 1018.2 |
| 20260506085113 | 58 | 226 | 0.9 | 3.5 | 0.00 | 0.00 | 0.00 | 83 | 1018.2 |
| 20260506085014 | 58 | 211 | 0.9 | 3.5 | 0.00 | 0.00 | 0.00 | 83 | 1018.2 |
| 20260506084912 | 58 | 205 | 0.9 | 3.5 | 0.00 | 0.00 | 0.00 | 83 | 1018.2 |
| 20260506084811 | 58 | 228 | 0.9 | 3.5 | 0.00 | 0.00 | 0.00 | 83 | 1018.2 |
| 20260506084712 | 58 | 229 | 0.9 | 3.5 | 0.00 | 0.00 | 0.00 | 83 | 1018.2 |
| 20260506084611 | 58 | 228 | 0.9 | 3.5 | 0.00 | 0.00 | 0.00 | 83 | 1018.2 |
| 20260506084511 | 58 | 228 | 0.9 | 3.5 | 0.00 | 0.00 | 0.00 | 83 | 1018.2 |
| 20260506084411 | 58 | 231 | 0.9 | 3.5 | 0.00 | 0.00 | 0.00 | 83 | 1018.2 |
| 20260506084312 | 58 | 131 | 0.9 | 3.5 | 0.00 | 0.00 | 0.00 | 83 | 1018.2 |
| 20260506084214 | 58 | 240 | 0.9 | 3.5 | 0.00 | 0.00 | 0.00 | 83 | 1018.2 |
| 20260506084111 | 58 | 239 | 0.9 | 3.5 | 0.00 | 0.00 | 0.00 | 83 | 1018.2 |
| 20260506084011 | 58 | 239 | 0.9 | 3.5 | 0.00 | 0.00 | 0.00 | 83 | 1018.2 |
| 20260506083934 | 58 | 215 | 1.7 | 5.2 | 0.00 | 0.00 | 0.00 | 83 | 1018.2 |
| 20260506083911 | 58 | 232 | 0.9 | 3.5 | 0.00 | 0.00 | 0.00 | 83 | 1018.2 |
| 20260506083828 | 58 | 198 | 1.7 | 5.2 | 0.00 | 0.00 | 0.00 | 83 | 1018.2 |
| 20260506083818 | 58 | 215 | 1.7 | 5.2 | 0.00 | 0.00 | 0.00 | 83 | 1018.2 |
| 20260506083611 | 58 | 236 | 1.7 | 5.2 | 0.00 | 0.00 | 0.00 | 83 | 1018.2 |
| 20260506083511 | 58 | 229 | 1.7 | 5.2 | 0.00 | 0.00 | 0.00 | 83 | 1018.2 |
| 20260506083409 | 58 | 153 | 1.7 | 5.2 | 0.00 | 0.00 | 0.00 | 83 | 1018.2 |
| 20260506083309 | 58 | 226 | 1.7 | 5.2 | 0.00 | 0.00 | 0.00 | 83 | 1018.2 |
| 20260506083214 | 58 | 227 | 2.6 | 6.1 | 0.00 | 0.00 | 0.00 | 83 | 1018.2 |
| 20260506083208 | 58 | 226 | 2.6 | 6.1 | 0.00 | 0.00 | 0.00 | 83 | 1018.2 |
| 20260506083106 | 58 | 226 | 2.6 | 6.1 | 0.00 | 0.00 | 0.00 | 83 | 1018.2 |
| 20260506083002 | 58 | 217 | 2.6 | 6.1 | 0.00 | 0.00 | 0.00 | 83 | 1018.2 |
| 20260506082859 | 58 | 243 | 2.6 | 6.1 | 0.00 | 0.00 | 0.00 | 83 | 1018.2 |
| 20260506082759 | 58 | 184 | 2.6 | 7.0 | 0.00 | 0.00 | 0.00 | 83 | 1018.2 |
| 20260506082709 | 58 | 228 | 2.6 | 7.0 | 0.00 | 0.00 | 0.00 | 83 | 1018.3 |
| 20260506082659 | 58 | 229 | 2.6 | 7.0 | 0.00 | 0.00 | 0.00 | 83 | 1018.3 |
| 20260506082557 | 58 | 215 | 2.6 | 7.0 | 0.00 | 0.00 | 0.00 | 83 | 1018.2 |
| 20260506082451 | 58 | 211 | 2.6 | 7.0 | 0.00 | 0.00 | 0.00 | 83 | 1018.3 |
| 20260506082351 | 58 | 245 | 2.6 | 7.0 | 0.00 | 0.00 | 0.00 | 83 | 1018.3 |
| 20260506082251 | 58 | 219 | 2.6 | 7.0 | 0.00 | 0.00 | 0.00 | 83 | 1018.2 |
| 20260506082209 | 58 | 250 | 2.6 | 7.0 | 0.00 | 0.00 | 0.00 | 83 | 1018.3 |
| 20260506082151 | 58 | 243 | 2.6 | 7.0 | 0.00 | 0.00 | 0.00 | 83 | 1018.3 |
| 20260506082051 | 58 | 233 | 2.6 | 7.0 | 0.00 | 0.00 | 0.00 | 83 | 1018.3 |
| 20260506081845 | 58 | 250 | 1.7 | 5.2 | 0.00 | 0.00 | 0.00 | 83 | 1018.3 |
| 20260506081746 | 58 | 221 | 1.7 | 5.2 | 0.00 | 0.00 | 0.00 | 83 | 1018.3 |
| 20260506081710 | 58 | 248 | 1.7 | 5.2 | 0.00 | 0.00 | 0.00 | 83 | 1018.2 |
| 20260506081645 | 58 | 238 | 1.7 | 5.2 | 0.00 | 0.00 | 0.00 | 83 | 1018.3 |
| 20260506081545 | 58 | 238 | 1.7 | 5.2 | 0.00 | 0.00 | 0.00 | 83 | 1018.3 |
| 20260506081445 | 58 | 236 | 1.7 | 5.2 | 0.00 | 0.00 | 0.00 | 83 | 1018.3 |
| 20260506081346 | 58 | 242 | 1.7 | 5.2 | 0.00 | 0.00 | 0.00 | 83 | 1018.2 |
| 20260506081245 | 58 | 242 | 1.7 | 5.2 | 0.00 | 0.00 | 0.00 | 83 | 1018.2 |
| 20260506081209 | 58 | 211 | 1.7 | 5.2 | 0.00 | 0.00 | 0.00 | 83 | 1018.2 |
| 20260506081143 | 58 | 211 | 1.7 | 5.2 | 0.00 | 0.00 | 0.00 | 83 | 1018.2 |
| 20260506081041 | 58 | 219 | 1.7 | 5.2 | 0.00 | 0.00 | 0.00 | 83 | 1018.2 |
| 20260506080942 | 58 | 212 | 1.7 | 5.2 | 0.00 | 0.00 | 0.00 | 83 | 1018.2 |
| 20260506080841 | 58 | 233 | 1.7 | 5.2 | 0.00 | 0.00 | 0.00 | 83 | 1018.2 |
| 20260506080741 | 58 | 248 | 1.7 | 5.2 | 0.00 | 0.00 | 0.00 | 83 | 1018.2 |
| 20260506080722 | 58 | 235 | 1.7 | 5.2 | 0.00 | 0.00 | 0.00 | 83 | 1018.2 |
| 20260506080641 | 58 | 289 | 1.7 | 5.2 | 0.00 | 0.00 | 0.00 | 83 | 1018.2 |
| 20260506080541 | 58 | 240 | 1.7 | 5.2 | 0.00 | 0.00 | 0.00 | 83 | 1018.2 |
| 20260506080441 | 58 | 225 | 1.7 | 5.2 | 0.00 | 0.00 | 0.00 | 83 | 1018.2 |
| 20260506080339 | 58 | 174 | 1.7 | 5.2 | 0.00 | 0.00 | 0.00 | 83 | 1018.2 |
| 20260506080240 | 58 | 211 | 1.7 | 5.2 | 0.00 | 0.00 | 0.00 | 83 | 1018.2 |
| 20260506080204 | 58 | 168 | 1.7 | 5.2 | 0.00 | 0.00 | 0.00 | 83 | 1018.2 |
| 20260506080140 | 58 | 141 | 1.7 | 5.2 | 0.00 | 0.00 | 0.00 | 83 | 1018.2 |
| 20260506073523 | 58 | 224 | 1.7 | 7.0 | 0.00 | 0.02 | 0.00 | 83 | 1018.0 |
| 20260506073423 | 58 | 246 | 0.9 | 7.0 | 0.00 | 0.02 | 0.00 | 83 | 1018.0 |
| 20260506073323 | 58 | 215 | 0.9 | 5.2 | 0.00 | 0.02 | 0.00 | 83 | 1018.0 |
| 20260506073203 | 58 | 233 | 1.7 | 5.2 | 0.00 | 0.02 | 0.00 | 83 | 1018.0 |
| 20260506073124 | 58 | 233 | 0.9 | 5.2 | 0.00 | 0.02 | 0.00 | 83 | 1017.9 |
| 20260506073023 | 58 | 221 | 1.7 | 5.2 | 0.00 | 0.02 | 0.00 | 83 | 1018.0 |
| 20260506072923 | 58 | 242 | 1.7 | 5.2 | 0.00 | 0.02 | 0.00 | 83 | 1018.0 |
| 20260506072823 | 58 | 239 | 1.7 | 5.2 | 0.00 | 0.02 | 0.00 | 83 | 1017.9 |
| 20260506072722 | 58 | 219 | 1.7 | 5.2 | 0.00 | 0.02 | 0.00 | 83 | 1018.0 |
| 20260506072703 | 58 | 207 | 1.7 | 5.2 | 0.00 | 0.02 | 0.00 | 83 | 1018.0 |
| 20260506072623 | 58 | 236 | 1.7 | 5.2 | 0.00 | 0.02 | 0.00 | 83 | 1018.0 |
| 20260506072523 | 58 | 236 | 1.7 | 5.2 | 0.00 | 0.02 | 0.00 | 83 | 1017.9 |
| 20260506072423 | 58 | 250 | 1.7 | 5.2 | 0.00 | 0.02 | 0.00 | 83 | 1017.9 |
| 20260506072323 | 58 | 233 | 1.7 | 5.2 | 0.00 | 0.02 | 0.00 | 83 | 1017.9 |
| 20260506072227 | 58 | 233 | 1.7 | 5.2 | 0.00 | 0.02 | 0.00 | 83 | 1017.9 |
| 20260506072216 | 58 | 235 | 1.7 | 5.2 | 0.00 | 0.02 | 0.00 | 83 | 1017.9 |
| 20260506072124 | 58 | 233 | 1.7 | 5.2 | 0.00 | 0.02 | 0.00 | 83 | 1017.9 |
| 20260506072023 | 58 | 188 | 1.7 | 5.2 | 0.00 | 0.03 | 0.00 | 83 | 1017.9 |
| 20260506071932 | 58 | 221 | 0.9 | 5.2 | 0.00 | 0.03 | 0.00 | 83 | 1017.9 |
| 20260506071923 | 58 | 232 | 1.7 | 5.2 | 0.00 | 0.03 | 0.00 | 83 | 1017.9 |
| 20260506071823 | 58 | 243 | 1.7 | 5.2 | 0.00 | 0.03 | 0.00 | 83 | 1017.8 |
| 20260506071814 | 58 | 224 | 0.9 | 5.2 | 0.00 | 0.03 | 0.00 | 83 | 1017.9 |
| 20260506071622 | 58 | 221 | 0.9 | 5.2 | 0.00 | 0.03 | 0.00 | 83 | 1017.9 |
| 20260506071520 | 58 | 240 | 0.9 | 5.2 | 0.00 | 0.03 | 0.00 | 83 | 1017.8 |
| 20260506071417 | 58 | 238 | 0.9 | 5.2 | 0.00 | 0.03 | 0.00 | 83 | 1017.9 |
| 20260506071315 | 58 | 214 | 0.9 | 5.2 | 0.00 | 0.03 | 0.00 | 83 | 1017.9 |
| 20260506071215 | 58 | 235 | 0.9 | 5.2 | 0.00 | 0.03 | 0.00 | 83 | 1017.9 |
| 20260506071201 | 58 | 221 | 0.9 | 5.2 | 0.00 | 0.03 | 0.00 | 83 | 1017.9 |
| 20260506071115 | 58 | 239 | 0.9 | 5.2 | 0.00 | 0.03 | 0.00 | 83 | 1017.9 |
| 20260506071015 | 58 | 231 | 0.9 | 5.2 | 0.00 | 0.03 | 0.00 | 83 | 1017.9 |
| 20260506070915 | 58 | 240 | 0.9 | 5.2 | 0.00 | 0.03 | 0.00 | 83 | 1017.9 |
| 20260506070813 | 58 | 240 | 0.9 | 5.2 | 0.00 | 0.03 | 0.00 | 83 | 1017.9 |
| 20260506070711 | 58 | 240 | 0.9 | 5.2 | 0.00 | 0.03 | 0.00 | 83 | 1017.8 |
| 20260506070701 | 58 | 240 | 0.9 | 5.2 | 0.00 | 0.03 | 0.00 | 83 | 1017.8 |
| 20260506070611 | 58 | 240 | 0.9 | 5.2 | 0.00 | 0.03 | 0.00 | 83 | 1017.8 |
| 20260506070510 | 58 | 240 | 0.9 | 5.2 | 0.00 | 0.03 | 0.00 | 83 | 1017.8 |
| 20260506070409 | 58 | 240 | 0.9 | 5.2 | 0.00 | 0.03 | 0.00 | 83 | 1017.8 |
| 20260506070308 | 58 | 236 | 0.9 | 5.2 | 0.00 | 0.04 | 0.00 | 83 | 1017.7 |
| 20260506070213 | 58 | 243 | 0.9 | 2.6 | 0.00 | 0.04 | 0.00 | 83 | 1017.7 |
| 20260506070203 | 58 | 246 | 0.9 | 2.6 | 0.00 | 0.04 | 0.00 | 83 | 1017.7 |
| 20260506070107 | 58 | 245 | 0.9 | 2.6 | 0.00 | 0.04 | 0.00 | 83 | 1017.7 |
| 20260506062428 | 58 | 253 | 0.9 | 6.1 | 0.00 | 0.07 | 0.04 | 83 | 1017.3 |
| 20260506062327 | 58 | 221 | 0.9 | 6.1 | 0.00 | 0.08 | 0.04 | 83 | 1017.3 |
| 20260506062229 | 58 | 266 | 0.9 | 6.1 | 0.00 | 0.08 | 0.04 | 83 | 1017.3 |
| 20260506062127 | 58 | 266 | 0.9 | 6.1 | 0.00 | 0.08 | 0.04 | 83 | 1017.3 |
| 20260506062021 | 58 | 227 | 0.9 | 6.1 | 0.00 | 0.08 | 0.04 | 83 | 1017.3 |
| 20260506061920 | 58 | 264 | 0.9 | 6.1 | 0.00 | 0.08 | 0.04 | 83 | 1017.3 |
| 20260506061819 | 58 | 211 | 0.9 | 5.2 | 0.00 | 0.08 | 0.04 | 84 | 1017.2 |
| 20260506061720 | 58 | 232 | 0.9 | 4.3 | 0.00 | 0.08 | 0.04 | 84 | 1017.3 |
| 20260506061621 | 58 | 232 | 0.9 | 5.2 | 0.00 | 0.08 | 0.04 | 84 | 1017.3 |
| 20260506061515 | 58 | 242 | 0.9 | 5.2 | 0.00 | 0.08 | 0.04 | 84 | 1017.2 |
| 20260506061415 | 58 | 242 | 0.9 | 5.2 | 0.00 | 0.08 | 0.04 | 84 | 1017.2 |
| 20260506061334 | 58 | 242 | 0.9 | 5.2 | 0.00 | 0.08 | 0.04 | 84 | 1017.1 |
| 20260506061315 | 58 | 242 | 0.9 | 5.2 | 0.00 | 0.08 | 0.04 | 84 | 1017.2 |
| 20260506061230 | 58 | 242 | 0.9 | 5.2 | 0.00 | 0.08 | 0.04 | 84 | 1017.2 |
| 20260506061220 | 58 | 242 | 0.9 | 5.2 | 0.00 | 0.08 | 0.04 | 84 | 1017.1 |
| 20260506061014 | 58 | 241 | 0.9 | 5.2 | 0.00 | 0.09 | 0.04 | 84 | 1017.1 |
| 20260506060912 | 58 | 243 | 0.9 | 5.2 | 0.00 | 0.09 | 0.04 | 84 | 1017.1 |
| 20260506060828 | 58 | 276 | 0.9 | 3.5 | 0.00 | 0.09 | 0.04 | 84 | 1017.2 |
| 20260506060811 | 58 | 242 | 0.9 | 5.2 | 0.00 | 0.09 | 0.04 | 84 | 1017.1 |
| 20260506060724 | 58 | 214 | 0.9 | 5.2 | 0.00 | 0.09 | 0.04 | 84 | 1017.1 |
| 20260506060714 | 58 | 276 | 0.9 | 3.5 | 0.00 | 0.09 | 0.04 | 84 | 1017.2 |
| 20260506060507 | 58 | 245 | 0.9 | 3.5 | 0.00 | 0.09 | 0.04 | 84 | 1017.2 |
| 20260506060405 | 58 | 225 | 0.9 | 3.5 | 0.00 | 0.09 | 0.04 | 84 | 1017.2 |
| 20260506060304 | 58 | 225 | 0.9 | 3.5 | 0.00 | 0.09 | 0.04 | 84 | 1017.2 |
| 20260506060204 | 58 | 219 | 0.9 | 3.5 | 0.00 | 0.10 | 0.04 | 84 | 1017.2 |
| 20260506060111 | 58 | 219 | 0.9 | 3.5 | 0.00 | 0.10 | 0.04 | 84 | 1017.2 |
| 20260506051402 | 59 | 233 | 0.9 | 4.3 | 0.00 | 0.13 | 0.04 | 83 | 1016.8 |
| 20260506051302 | 59 | 233 | 0.9 | 4.3 | 0.00 | 0.13 | 0.04 | 83 | 1016.8 |
| 20260506051201 | 59 | 236 | 0.9 | 4.3 | 0.00 | 0.13 | 0.04 | 83 | 1016.8 |
| 20260506051102 | 59 | 248 | 0.9 | 4.3 | 0.00 | 0.13 | 0.04 | 83 | 1016.8 |
| 20260506051004 | 59 | 224 | 0.9 | 4.3 | 0.00 | 0.13 | 0.04 | 83 | 1016.8 |
| 20260506050901 | 59 | 226 | 0.9 | 4.3 | 0.00 | 0.13 | 0.04 | 83 | 1016.7 |
| 20260506050759 | 59 | 236 | 0.9 | 4.3 | 0.00 | 0.13 | 0.04 | 83 | 1016.7 |
| 20260506050700 | 59 | 148 | 0.9 | 4.3 | 0.00 | 0.13 | 0.04 | 83 | 1016.7 |
| 20260506050558 | 59 | 148 | 1.7 | 4.3 | 0.00 | 0.13 | 0.04 | 82 | 1016.7 |
| 20260506050457 | 59 | 240 | 0.9 | 4.3 | 0.00 | 0.13 | 0.04 | 82 | 1016.7 |
| 20260506050350 | 59 | 240 | 0.9 | 4.3 | 0.00 | 0.13 | 0.04 | 82 | 1016.6 |
| 20260506050250 | 59 | 311 | 0.9 | 4.3 | 0.00 | 0.13 | 0.04 | 82 | 1016.7 |
| 20260506050149 | 59 | 242 | 0.9 | 4.3 | 0.00 | 0.13 | 0.04 | 82 | 1016.6 |
| 20260506045040 | 60 | 235 | 0.9 | 3.5 | 0.00 | 0.14 | 0.04 | 81 | 1016.6 |
| 20260506044940 | 60 | 240 | 0.9 | 3.5 | 0.00 | 0.14 | 0.04 | 81 | 1016.6 |
| 20260506044836 | 60 | 240 | 0.9 | 3.5 | 0.00 | 0.14 | 0.04 | 81 | 1016.5 |
| 20260506044736 | 60 | 239 | 0.9 | 4.3 | 0.00 | 0.14 | 0.04 | 81 | 1016.5 |
| 20260506044634 | 60 | 141 | 1.7 | 7.0 | 0.00 | 0.14 | 0.04 | 81 | 1016.5 |
| 20260506044533 | 60 | 232 | 1.7 | 7.0 | 0.00 | 0.14 | 0.04 | 81 | 1016.5 |
| 20260506044433 | 60 | 262 | 1.7 | 7.0 | 0.00 | 0.14 | 0.04 | 81 | 1016.4 |
| 20260506044327 | 60 | 253 | 1.7 | 7.0 | 0.00 | 0.14 | 0.04 | 80 | 1016.4 |
| 20260506044228 | 60 | 215 | 2.6 | 7.8 | 0.00 | 0.14 | 0.04 | 80 | 1016.4 |
| 20260506044127 | 60 | 216 | 2.6 | 7.8 | 0.00 | 0.14 | 0.04 | 80 | 1016.4 |
| 20260506044028 | 60 | 214 | 2.6 | 7.8 | 0.00 | 0.15 | 0.04 | 80 | 1016.4 |
| 20260506043928 | 60 | 248 | 2.6 | 7.8 | 0.00 | 0.15 | 0.04 | 80 | 1016.4 |
| 20260506043819 | 60 | 239 | 3.5 | 7.8 | 0.00 | 0.15 | 0.04 | 80 | 1016.3 |
| 20260506043719 | 60 | 256 | 3.5 | 7.8 | 0.00 | 0.15 | 0.04 | 80 | 1016.3 |
| 20260506043620 | 60 | 238 | 3.5 | 7.8 | 0.00 | 0.15 | 0.04 | 80 | 1016.3 |
| 20260506043520 | 60 | 248 | 3.5 | 7.8 | 0.00 | 0.15 | 0.04 | 80 | 1016.3 |
| 20260506043421 | 60 | 266 | 2.6 | 7.8 | 0.00 | 0.15 | 0.04 | 80 | 1016.2 |
| 20260506043313 | 60 | 250 | 2.6 | 7.8 | 0.00 | 0.15 | 0.04 | 80 | 1016.2 |
| 20260506043214 | 60 | 212 | 2.6 | 7.0 | 0.00 | 0.15 | 0.04 | 80 | 1016.2 |
| 20260506043114 | 60 | 231 | 2.6 | 7.0 | 0.00 | 0.15 | 0.04 | 80 | 1016.2 |
| 20260506043013 | 60 | 245 | 2.6 | 7.0 | 0.00 | 0.15 | 0.04 | 80 | 1016.1 |
| 20260506042916 | 60 | 231 | 2.6 | 7.0 | 0.00 | 0.15 | 0.04 | 79 | 1016.1 |
| 20260506042808 | 60 | 222 | 2.6 | 7.0 | 0.00 | 0.15 | 0.04 | 79 | 1016.0 |
| 20260506042707 | 60 | 245 | 2.6 | 7.0 | 0.00 | 0.16 | 0.04 | 79 | 1016.1 |
| 20260506042637 | 61 | 250 | 2.6 | 7.8 | 0.00 | 0.16 | 0.04 | 79 | 1016.1 |
| 20260506042607 | 60 | 226 | 2.6 | 7.8 | 0.00 | 0.16 | 0.04 | 79 | 1016.0 |
| 20260506042527 | 61 | 204 | 2.6 | 7.8 | 0.00 | 0.16 | 0.04 | 79 | 1016.1 |
| 20260506042513 | 61 | 250 | 2.6 | 7.8 | 0.00 | 0.16 | 0.04 | 79 | 1016.1 |
| 20260506042305 | 61 | 232 | 2.6 | 7.8 | 0.00 | 0.16 | 0.04 | 79 | 1016.1 |
| 20260506042201 | 61 | 233 | 1.7 | 7.8 | 0.00 | 0.16 | 0.04 | 79 | 1016.1 |
| 20260506042102 | 61 | 233 | 2.6 | 9.6 | 0.00 | 0.16 | 0.04 | 79 | 1016.1 |
| 20260506042001 | 61 | 281 | 2.6 | 9.6 | 0.00 | 0.16 | 0.04 | 79 | 1016.1 |
| 20260506041906 | 61 | 236 | 2.6 | 9.6 | 0.00 | 0.16 | 0.04 | 79 | 1016.1 |
| 20260506041759 | 61 | 250 | 2.6 | 9.6 | 0.00 | 0.16 | 0.04 | 79 | 1016.1 |
| 20260506041700 | 61 | 229 | 1.7 | 9.6 | 0.00 | 0.16 | 0.04 | 79 | 1016.1 |
| 20260506041600 | 61 | 224 | 1.7 | 9.6 | 0.00 | 0.16 | 0.04 | 79 | 1016.1 |
| 20260506041458 | 61 | 226 | 1.7 | 9.6 | 0.00 | 0.17 | 0.04 | 79 | 1016.1 |
| 20260506041357 | 61 | 226 | 1.7 | 9.6 | 0.00 | 0.17 | 0.04 | 79 | 1016.1 |
| 20260506041252 | 61 | 246 | 1.7 | 9.6 | 0.00 | 0.17 | 0.04 | 79 | 1016.1 |
| 20260506041151 | 61 | 214 | 1.7 | 9.6 | 0.00 | 0.17 | 0.04 | 79 | 1016.1 |
| 20260506041052 | 61 | 236 | 1.7 | 6.1 | 0.00 | 0.17 | 0.04 | 79 | 1016.1 |
| 20260506040952 | 61 | 239 | 1.7 | 6.1 | 0.00 | 0.17 | 0.04 | 79 | 1016.1 |
| 20260506040851 | 61 | 231 | 1.7 | 6.1 | 0.00 | 0.17 | 0.04 | 79 | 1016.1 |
| 20260506040745 | 61 | 208 | 1.7 | 6.1 | 0.00 | 0.17 | 0.04 | 79 | 1016.1 |
| 20260506040645 | 61 | 229 | 1.7 | 6.1 | 0.00 | 0.17 | 0.04 | 79 | 1016.1 |
| 20260506040604 | 61 | 239 | 1.7 | 7.0 | 0.00 | 0.18 | 0.04 | 78 | 1016.1 |
| 20260506040545 | 61 | 185 | 1.7 | 6.1 | 0.00 | 0.17 | 0.04 | 79 | 1016.1 |
| 20260506040504 | 61 | 233 | 1.7 | 6.1 | 0.00 | 0.17 | 0.04 | 79 | 1016.1 |
| 20260506040450 | 61 | 239 | 1.7 | 7.0 | 0.00 | 0.18 | 0.04 | 78 | 1016.1 |
| 20260506040240 | 61 | 240 | 1.7 | 7.0 | 0.00 | 0.18 | 0.04 | 78 | 1016.1 |
| 20260506040140 | 61 | 251 | 1.7 | 7.0 | 0.00 | 0.18 | 0.04 | 78 | 1016.1 |
| 20260506040039 | 61 | 253 | 1.7 | 7.0 | 0.00 | 0.18 | 0.04 | 78 | 1016.1 |
| 20260506035939 | 62 | 245 | 1.7 | 7.0 | 0.00 | 0.18 | 0.04 | 78 | 1016.1 |
| 20260506035840 | 62 | 181 | 0.9 | 7.0 | 0.00 | 0.18 | 0.04 | 78 | 1016.1 |
| 20260506035733 | 62 | 219 | 0.9 | 7.0 | 0.00 | 0.18 | 0.04 | 78 | 1016.1 |
| 20260506035632 | 62 | 233 | 0.9 | 7.0 | 0.00 | 0.18 | 0.04 | 79 | 1016.1 |
| 20260506035531 | 62 | 233 | 0.9 | 7.0 | 0.00 | 0.18 | 0.04 | 78 | 1016.1 |
| 20260506035431 | 62 | 249 | 0.9 | 7.0 | 0.00 | 0.18 | 0.04 | 79 | 1016.0 |
| 20260506035333 | 62 | 235 | 0.9 | 5.2 | 0.00 | 0.18 | 0.04 | 78 | 1016.0 |
| 20260506035232 | 62 | 233 | 0.9 | 5.2 | 0.00 | 0.18 | 0.04 | 78 | 1016.0 |
| 20260506035129 | 62 | 240 | 0.9 | 5.2 | 0.00 | 0.18 | 0.04 | 78 | 1016.0 |
| 20260506035028 | 62 | 253 | 0.9 | 4.3 | 0.00 | 0.19 | 0.04 | 78 | 1016.0 |
| 20260506034927 | 62 | 235 | 0.9 | 3.5 | 0.00 | 0.19 | 0.04 | 79 | 1016.0 |
| 20260506034827 | 62 | 240 | 0.9 | 3.5 | 0.00 | 0.19 | 0.04 | 79 | 1016.0 |
| 20260506034726 | 62 | 245 | 0.9 | 3.5 | 0.00 | 0.19 | 0.04 | 79 | 1016.0 |
| 20260506034623 | 62 | 243 | 0.9 | 5.2 | 0.00 | 0.20 | 0.04 | 79 | 1015.9 |
| 20260506034523 | 62 | 239 | 0.9 | 5.2 | 0.00 | 0.20 | 0.04 | 78 | 1015.9 |
| 20260506034421 | 62 | 230 | 0.9 | 5.2 | 0.00 | 0.20 | 0.04 | 78 | 1015.9 |
| 20260506034322 | 62 | 238 | 0.9 | 5.2 | 0.00 | 0.20 | 0.04 | 78 | 1015.9 |
| 20260506034218 | 62 | 211 | 0.9 | 5.2 | 0.00 | 0.20 | 0.04 | 79 | 1015.9 |
| 20260506034118 | 62 | 243 | 0.9 | 7.8 | 0.00 | 0.20 | 0.04 | 78 | 1015.8 |
| 20260506034018 | 62 | 217 | 0.9 | 7.8 | 0.00 | 0.21 | 0.04 | 79 | 1015.8 |
| 20260506033916 | 62 | 236 | 0.9 | 7.8 | 0.00 | 0.21 | 0.04 | 79 | 1015.8 |
| 20260506033815 | 62 | 231 | 0.9 | 7.8 | 0.00 | 0.21 | 0.04 | 79 | 1015.8 |
| 20260506033710 | 62 | 260 | 0.9 | 7.8 | 0.00 | 0.22 | 0.04 | 79 | 1015.8 |
| 20260506033609 | 62 | 228 | 0.9 | 7.8 | 0.00 | 0.22 | 0.04 | 79 | 1015.8 |
| 20260506033509 | 62 | 233 | 0.9 | 7.8 | 0.00 | 0.22 | 0.04 | 79 | 1015.7 |
| 20260506033410 | 62 | 262 | 1.7 | 7.8 | 0.00 | 0.23 | 0.04 | 79 | 1015.7 |
| 20260506033310 | 62 | 262 | 1.7 | 7.8 | 0.00 | 0.23 | 0.04 | 79 | 1015.7 |
| 20260506033202 | 62 | 243 | 1.7 | 7.8 | 0.00 | 0.23 | 0.04 | 79 | 1015.6 |
| 20260506033101 | 62 | 248 | 1.7 | 5.2 | 0.00 | 0.23 | 0.04 | 79 | 1015.6 |
| 20260506033001 | 62 | 231 | 1.7 | 5.2 | 0.00 | 0.24 | 0.04 | 79 | 1015.6 |
| 20260506032902 | 62 | 231 | 0.9 | 5.2 | 0.00 | 0.24 | 0.04 | 79 | 1015.6 |
| 20260506032802 | 62 | 231 | 1.7 | 5.2 | 0.00 | 0.24 | 0.04 | 79 | 1015.5 |
| 20260506032659 | 62 | 232 | 1.7 | 5.2 | 0.00 | 0.24 | 0.04 | 79 | 1015.5 |
| 20260506032559 | 62 | 231 | 1.7 | 5.2 | 0.00 | 0.24 | 0.04 | 79 | 1015.5 |
| 20260506032500 | 62 | 232 | 0.9 | 5.2 | 0.00 | 0.24 | 0.04 | 79 | 1015.5 |
| 20260506032357 | 62 | 222 | 0.9 | 3.5 | 0.00 | 0.24 | 0.04 | 79 | 1015.5 |
| 20260506032258 | 62 | 212 | 0.9 | 3.5 | 0.00 | 0.24 | 0.04 | 79 | 1015.5 |
| 20260506032153 | 62 | 239 | 0.9 | 3.5 | 0.00 | 0.24 | 0.04 | 79 | 1015.4 |
| 20260506032054 | 62 | 235 | 0.9 | 3.5 | 0.00 | 0.25 | 0.04 | 79 | 1015.4 |
| 20260506031954 | 62 | 235 | 0.9 | 3.5 | 0.00 | 0.25 | 0.04 | 79 | 1015.4 |
| 20260506031852 | 62 | 235 | 1.7 | 3.5 | 0.00 | 0.25 | 0.04 | 79 | 1015.4 |
| 20260506031750 | 62 | 226 | 0.9 | 3.5 | 0.00 | 0.25 | 0.04 | 79 | 1015.4 |
| 20260506031646 | 62 | 212 | 0.9 | 3.5 | 0.00 | 0.25 | 0.04 | 79 | 1015.3 |
| 20260506031545 | 62 | 224 | 0.9 | 3.5 | 0.00 | 0.25 | 0.04 | 79 | 1015.3 |
| 20260506031445 | 62 | 203 | 0.9 | 3.5 | 0.00 | 0.25 | 0.04 | 79 | 1015.4 |
| 20260506031345 | 62 | 229 | 0.9 | 2.6 | 0.00 | 0.25 | 0.04 | 79 | 1015.3 |
| 20260506031244 | 62 | 203 | 0.9 | 2.6 | 0.00 | 0.25 | 0.04 | 79 | 1015.3 |
| 20260506031138 | 62 | 214 | 0.9 | 2.6 | 0.00 | 0.25 | 0.04 | 79 | 1015.3 |
| 20260506031037 | 62 | 226 | 0.9 | 2.6 | 0.00 | 0.25 | 0.04 | 79 | 1015.3 |
| 20260506030937 | 62 | 248 | 0.9 | 2.6 | 0.00 | 0.25 | 0.04 | 79 | 1015.3 |
| 20260506030837 | 62 | 210 | 0.9 | 2.6 | 0.00 | 0.25 | 0.04 | 79 | 1015.4 |
| 20260506030740 | 62 | 210 | 0.9 | 2.6 | 0.00 | 0.25 | 0.04 | 79 | 1015.4 |
| 20260506030638 | 62 | 210 | 0.9 | 2.6 | 0.00 | 0.25 | 0.04 | 79 | 1015.4 |
| 20260506030535 | 62 | 210 | 0.9 | 2.6 | 0.00 | 0.25 | 0.04 | 79 | 1015.4 |
| 20260506030435 | 62 | 210 | 0.9 | 2.6 | 0.00 | 0.25 | 0.04 | 79 | 1015.3 |
| 20260506030334 | 62 | 211 | 0.9 | 2.6 | 0.00 | 0.25 | 0.04 | 79 | 1015.3 |
| 20260506030235 | 62 | 218 | 0.9 | 2.6 | 0.00 | 0.25 | 0.04 | 79 | 1015.3 |
| 20260506030127 | 62 | 238 | 0.9 | 2.6 | 0.00 | 0.25 | 0.04 | 79 | 1015.3 |
| 20260506030025 | 62 | 228 | 0.9 | 2.6 | 0.00 | 0.25 | 0.04 | 79 | 1015.3 |
| 20260506025926 | 62 | 228 | 0.9 | 2.6 | 0.00 | 0.25 | 0.04 | 79 | 1015.3 |
| 20260506025826 | 62 | 228 | 0.9 | 2.6 | 0.00 | 0.25 | 0.04 | 78 | 1015.3 |
| 20260506025732 | 62 | 229 | 0.9 | 2.6 | 0.00 | 0.25 | 0.04 | 78 | 1015.2 |
| 20260506025625 | 63 | 228 | 0.0 | 2.6 | 0.00 | 0.25 | 0.04 | 78 | 1015.2 |
| 20260506025524 | 63 | 214 | 0.0 | 2.6 | 0.00 | 0.25 | 0.04 | 78 | 1015.3 |
| 20260506025423 | 63 | 200 | 0.0 | 2.6 | 0.00 | 0.25 | 0.04 | 78 | 1015.2 |
| 20260506025322 | 63 | 200 | 0.9 | 2.6 | 0.00 | 0.25 | 0.04 | 78 | 1015.2 |
| 20260506025223 | 63 | 204 | 0.9 | 2.6 | 0.00 | 0.25 | 0.04 | 78 | 1015.2 |
| 20260506025119 | 63 | 204 | 0.9 | 2.6 | 0.00 | 0.25 | 0.04 | 78 | 1015.2 |
| 20260506025017 | 63 | 204 | 0.9 | 2.6 | 0.00 | 0.25 | 0.04 | 78 | 1015.1 |
| 20260506024918 | 63 | 212 | 0.9 | 3.5 | 0.00 | 0.25 | 0.04 | 78 | 1015.2 |
| 20260506024815 | 63 | 177 | 0.9 | 3.5 | 0.00 | 0.25 | 0.04 | 77 | 1015.1 |
| 20260506024716 | 63 | 177 | 0.9 | 3.5 | 0.00 | 0.25 | 0.04 | 77 | 1015.1 |
| 20260506024611 | 63 | 177 | 0.9 | 3.5 | 0.00 | 0.25 | 0.04 | 77 | 1015.1 |
| 20260506024512 | 63 | 207 | 1.7 | 3.5 | 0.00 | 0.25 | 0.04 | 77 | 1015.0 |
| 20260506024412 | 63 | 214 | 1.7 | 4.3 | 0.00 | 0.25 | 0.04 | 77 | 1015.0 |
| 20260506024310 | 63 | 214 | 1.7 | 4.3 | 0.00 | 0.25 | 0.04 | 77 | 1014.9 |
| 20260506024209 | 63 | 214 | 1.7 | 4.3 | 0.00 | 0.25 | 0.04 | 77 | 1015.0 |
| 20260506024108 | 63 | 232 | 1.7 | 4.3 | 0.00 | 0.25 | 0.04 | 77 | 1014.9 |
| 20260506024005 | 63 | 231 | 1.7 | 4.3 | 0.00 | 0.25 | 0.04 | 76 | 1014.9 |
| 20260506023905 | 63 | 208 | 1.7 | 4.3 | 0.00 | 0.25 | 0.04 | 77 | 1014.9 |
| 20260506023804 | 63 | 225 | 1.7 | 4.3 | 0.00 | 0.25 | 0.04 | 76 | 1014.9 |
| 20260506023704 | 63 | 233 | 1.7 | 4.3 | 0.00 | 0.25 | 0.04 | 76 | 1014.9 |
| 20260506023557 | 63 | 204 | 1.7 | 4.3 | 0.00 | 0.25 | 0.04 | 76 | 1014.8 |
| 20260506023456 | 63 | 204 | 1.7 | 4.3 | 0.00 | 0.25 | 0.04 | 76 | 1014.9 |
| 20260506023417 | 63 | 245 | 1.7 | 5.2 | 0.00 | 0.25 | 0.04 | 76 | 1014.7 |
| 20260506023356 | 63 | 228 | 1.7 | 4.3 | 0.00 | 0.25 | 0.04 | 76 | 1014.8 |
| 20260506023315 | 63 | 231 | 1.7 | 5.2 | 0.00 | 0.25 | 0.04 | 76 | 1014.7 |
| 20260506023304 | 63 | 245 | 1.7 | 5.2 | 0.00 | 0.25 | 0.04 | 76 | 1014.7 |
| 20260506023050 | 63 | 170 | 2.6 | 5.2 | 0.00 | 0.25 | 0.04 | 76 | 1014.7 |
| 20260506022950 | 63 | 207 | 2.6 | 5.2 | 0.00 | 0.25 | 0.04 | 76 | 1014.7 |
| 20260506022849 | 63 | 203 | 2.6 | 5.2 | 0.00 | 0.25 | 0.04 | 76 | 1014.7 |
| 20260506022750 | 63 | 233 | 2.6 | 5.2 | 0.00 | 0.25 | 0.04 | 76 | 1014.8 |
| 20260506022651 | 63 | 231 | 1.7 | 5.2 | 0.00 | 0.25 | 0.04 | 76 | 1014.8 |
| 20260506022544 | 64 | 214 | 1.7 | 5.2 | 0.00 | 0.25 | 0.04 | 76 | 1014.8 |
| 20260506022444 | 64 | 231 | 1.7 | 5.2 | 0.00 | 0.25 | 0.04 | 76 | 1014.8 |
| 20260506022343 | 64 | 149 | 1.7 | 5.2 | 0.00 | 0.25 | 0.04 | 76 | 1014.8 |
| 20260506022243 | 64 | 203 | 1.7 | 4.3 | 0.00 | 0.25 | 0.04 | 76 | 1014.9 |
| 20260506022144 | 64 | 204 | 1.7 | 3.5 | 0.00 | 0.25 | 0.04 | 76 | 1014.8 |
| 20260506022038 | 64 | 229 | 1.7 | 4.3 | 0.00 | 0.25 | 0.04 | 76 | 1014.8 |
| 20260506021937 | 64 | 174 | 1.7 | 5.2 | 0.00 | 0.25 | 0.04 | 76 | 1014.9 |
| 20260506021857 | 64 | 155 | 2.6 | 6.1 | 0.00 | 0.25 | 0.04 | 76 | 1014.8 |
| 20260506021837 | 64 | 155 | 1.7 | 5.2 | 0.00 | 0.25 | 0.04 | 76 | 1014.8 |
| 20260506021753 | 64 | 158 | 1.7 | 6.1 | 0.00 | 0.25 | 0.04 | 76 | 1014.9 |
| 20260506021742 | 64 | 155 | 2.6 | 6.1 | 0.00 | 0.25 | 0.04 | 76 | 1014.8 |
| 20260506021538 | 64 | 155 | 2.6 | 6.1 | 0.00 | 0.25 | 0.04 | 76 | 1014.8 |
| 20260506021435 | 64 | 155 | 2.6 | 6.1 | 0.00 | 0.25 | 0.04 | 76 | 1014.8 |
| 20260506021333 | 64 | 222 | 2.6 | 6.1 | 0.00 | 0.25 | 0.04 | 76 | 1014.9 |
| 20260506021234 | 64 | 238 | 2.6 | 6.1 | 0.00 | 0.25 | 0.04 | 76 | 1014.8 |
| 20260506021134 | 64 | 238 | 2.6 | 6.1 | 0.00 | 0.25 | 0.04 | 76 | 1014.9 |
| 20260506021026 | 64 | 231 | 2.6 | 6.1 | 0.00 | 0.25 | 0.04 | 76 | 1014.7 |
| 20260506020926 | 64 | 250 | 2.6 | 6.1 | 0.00 | 0.25 | 0.04 | 76 | 1014.8 |
| 20260506020825 | 64 | 250 | 2.6 | 6.1 | 0.00 | 0.25 | 0.04 | 76 | 1014.7 |
| 20260506020726 | 64 | 258 | 2.6 | 6.1 | 0.00 | 0.25 | 0.04 | 76 | 1014.7 |
| 20260506020627 | 64 | 221 | 2.6 | 5.2 | 0.00 | 0.25 | 0.04 | 76 | 1014.7 |
| 20260506020519 | 64 | 219 | 2.6 | 5.2 | 0.00 | 0.25 | 0.04 | 76 | 1014.7 |
| 20260506020419 | 64 | 203 | 2.6 | 5.2 | 0.00 | 0.25 | 0.04 | 76 | 1014.8 |
| 20260506020320 | 64 | 207 | 2.6 | 6.1 | 0.00 | 0.25 | 0.04 | 76 | 1014.8 |
| 20260506020220 | 64 | 136 | 2.6 | 6.1 | 0.00 | 0.25 | 0.04 | 75 | 1014.9 |
| 20260506020121 | 64 | 253 | 2.6 | 6.1 | 0.00 | 0.25 | 0.04 | 75 | 1014.9 |
| 20260506020017 | 64 | 186 | 2.6 | 6.1 | 0.00 | 0.25 | 0.04 | 75 | 1014.8 |
| 20260506015917 | 64 | 231 | 2.6 | 6.1 | 0.00 | 0.25 | 0.04 | 75 | 1014.8 |
| 20260506015816 | 64 | 231 | 2.6 | 6.1 | 0.00 | 0.25 | 0.04 | 75 | 1014.8 |
| 20260506015716 | 64 | 202 | 2.6 | 6.1 | 0.00 | 0.25 | 0.04 | 75 | 1014.8 |
| 20260506015615 | 64 | 238 | 2.6 | 7.0 | 0.00 | 0.25 | 0.04 | 75 | 1014.8 |
| 20260506015507 | 64 | 136 | 2.6 | 7.0 | 0.00 | 0.25 | 0.04 | 75 | 1014.8 |
| 20260506015408 | 64 | 195 | 2.6 | 7.0 | 0.00 | 0.25 | 0.04 | 75 | 1014.8 |
| 20260506015308 | 65 | 204 | 2.6 | 7.0 | 0.00 | 0.25 | 0.04 | 75 | 1014.7 |
| 20260506015207 | 65 | 208 | 1.7 | 7.0 | 0.00 | 0.25 | 0.04 | 75 | 1014.7 |
| 20260506015110 | 65 | 219 | 1.7 | 7.0 | 0.00 | 0.25 | 0.04 | 74 | 1014.7 |
| 20260506015002 | 65 | 215 | 1.7 | 7.0 | 0.00 | 0.25 | 0.04 | 74 | 1014.7 |
| 20260506014901 | 65 | 144 | 1.7 | 7.0 | 0.00 | 0.25 | 0.04 | 74 | 1014.7 |
| 20260506014801 | 65 | 226 | 1.7 | 7.0 | 0.00 | 0.25 | 0.04 | 74 | 1014.7 |
| 20260506014702 | 65 | 124 | 1.7 | 7.0 | 0.00 | 0.25 | 0.04 | 74 | 1014.7 |
| 20260506014607 | 65 | 153 | 1.7 | 6.1 | 0.00 | 0.25 | 0.04 | 74 | 1014.7 |
| 20260506014455 | 65 | 122 | 1.7 | 6.1 | 0.00 | 0.25 | 0.04 | 74 | 1014.6 |
| 20260506014356 | 65 | 141 | 1.7 | 6.1 | 0.00 | 0.25 | 0.04 | 74 | 1014.7 |
| 20260506014255 | 65 | 139 | 1.7 | 6.1 | 0.00 | 0.25 | 0.04 | 73 | 1014.7 |
| 20260506014155 | 65 | 132 | 1.7 | 6.1 | 0.00 | 0.25 | 0.04 | 73 | 1014.7 |
| 20260506014058 | 65 | 143 | 2.6 | 6.1 | 0.00 | 0.25 | 0.04 | 73 | 1014.6 |
| 20260506013954 | 65 | 147 | 1.7 | 5.2 | 0.00 | 0.25 | 0.04 | 73 | 1014.6 |
| 20260506013853 | 65 | 186 | 1.7 | 5.2 | 0.00 | 0.25 | 0.04 | 72 | 1014.7 |
| 20260506013753 | 65 | 146 | 1.7 | 5.2 | 0.00 | 0.25 | 0.04 | 72 | 1014.7 |
| 20260506013651 | 65 | 141 | 1.7 | 5.2 | 0.00 | 0.25 | 0.04 | 72 | 1014.7 |
| 20260506013552 | 65 | 217 | 1.7 | 5.2 | 0.00 | 0.25 | 0.04 | 72 | 1014.7 |
| 20260506013444 | 65 | 200 | 1.7 | 5.2 | 0.00 | 0.25 | 0.04 | 72 | 1014.7 |
| 20260506013344 | 65 | 225 | 1.7 | 5.2 | 0.00 | 0.26 | 0.04 | 71 | 1014.7 |
| 20260506013244 | 65 | 236 | 1.7 | 4.3 | 0.00 | 0.26 | 0.04 | 71 | 1014.7 |
| 20260506013143 | 65 | 200 | 1.7 | 4.3 | 0.00 | 0.26 | 0.04 | 70 | 1014.7 |
| 20260506013045 | 65 | 141 | 0.9 | 4.3 | 0.00 | 0.26 | 0.04 | 70 | 1014.7 |
| 20260506012938 | 65 | 110 | 0.9 | 4.3 | 0.00 | 0.26 | 0.04 | 70 | 1014.7 |
| 20260506012838 | 65 | 158 | 0.9 | 4.3 | 0.00 | 0.26 | 0.04 | 70 | 1014.7 |
| 20260506012800 | 65 | 215 | 1.7 | 4.3 | 0.00 | 0.26 | 0.04 | 70 | 1014.6 |
| 20260506012738 | 65 | 146 | 1.7 | 4.3 | 0.00 | 0.26 | 0.04 | 70 | 1014.7 |
| 20260506012655 | 65 | 129 | 1.7 | 4.3 | 0.00 | 0.26 | 0.04 | 69 | 1014.6 |
| 20260506012645 | 65 | 215 | 1.7 | 4.3 | 0.00 | 0.26 | 0.04 | 70 | 1014.6 |
| 20260506012432 | 65 | 116 | 1.7 | 4.3 | 0.00 | 0.26 | 0.04 | 70 | 1014.6 |
| 20260506012251 | 65 | 225 | 1.7 | 4.3 | 0.00 | 0.26 | 0.04 | 71 | 1014.6 |
| 20260506012232 | 65 | 134 | 1.7 | 4.3 | 0.00 | 0.26 | 0.04 | 70 | 1014.6 |
| 20260506012147 | 65 | 122 | 1.7 | 4.3 | 0.00 | 0.26 | 0.04 | 71 | 1014.6 |
| 20260506012137 | 65 | 225 | 1.7 | 4.3 | 0.00 | 0.26 | 0.04 | 71 | 1014.6 |
| 20260506011927 | 65 | 118 | 1.7 | 5.2 | 0.00 | 0.26 | 0.04 | 71 | 1014.6 |
| 20260506011826 | 65 | 120 | 1.7 | 5.2 | 0.00 | 0.26 | 0.04 | 71 | 1014.6 |
| 20260506011748 | 65 | 207 | 1.7 | 5.2 | 0.00 | 0.26 | 0.04 | 71 | 1014.6 |
| 20260506011726 | 65 | 192 | 1.7 | 5.2 | 0.00 | 0.26 | 0.04 | 71 | 1014.6 |
| 20260506011643 | 65 | 200 | 1.7 | 5.2 | 0.00 | 0.26 | 0.04 | 71 | 1014.6 |
| 20260506011633 | 65 | 207 | 1.7 | 5.2 | 0.00 | 0.26 | 0.04 | 71 | 1014.6 |
| 20260506011422 | 65 | 160 | 1.7 | 5.2 | 0.00 | 0.26 | 0.04 | 71 | 1014.5 |
| 20260506011322 | 65 | 240 | 1.7 | 5.2 | 0.00 | 0.26 | 0.04 | 72 | 1014.5 |
| 20260506011222 | 65 | 150 | 1.7 | 5.2 | 0.00 | 0.26 | 0.04 | 72 | 1014.5 |
| 20260506011122 | 65 | 205 | 1.7 | 5.2 | 0.00 | 0.26 | 0.04 | 72 | 1014.5 |
| 20260506011021 | 65 | 136 | 1.7 | 5.2 | 0.00 | 0.26 | 0.04 | 72 | 1014.5 |
| 20260506010917 | 65 | 163 | 1.7 | 3.5 | 0.00 | 0.26 | 0.04 | 73 | 1014.5 |
| 20260506010817 | 65 | 136 | 1.7 | 3.5 | 0.00 | 0.26 | 0.04 | 73 | 1014.5 |
| 20260506010717 | 65 | 139 | 1.7 | 5.2 | 0.00 | 0.26 | 0.04 | 73 | 1014.5 |
| 20260506010616 | 65 | 134 | 1.7 | 5.2 | 0.00 | 0.26 | 0.04 | 73 | 1014.5 |
| 20260506010516 | 65 | 124 | 1.7 | 5.2 | 0.00 | 0.26 | 0.04 | 73 | 1014.5 |
| 20260506010408 | 65 | 115 | 1.7 | 5.2 | 0.00 | 0.26 | 0.04 | 73 | 1014.4 |
| 20260506010307 | 65 | 116 | 1.7 | 5.2 | 0.00 | 0.26 | 0.04 | 73 | 1014.5 |
| 20260506010240 | 65 | 233 | 1.7 | 5.2 | 0.00 | 0.27 | 0.04 | 73 | 1014.5 |
| 20260506010207 | 65 | 167 | 1.7 | 5.2 | 0.00 | 0.26 | 0.04 | 73 | 1014.5 |
| 20260506010125 | 65 | 127 | 0.9 | 5.2 | 0.00 | 0.27 | 0.04 | 73 | 1014.5 |
| 20260506010114 | 65 | 233 | 1.7 | 5.2 | 0.00 | 0.27 | 0.04 | 73 | 1014.5 |
| 20260506005906 | 65 | 221 | 1.7 | 5.2 | 0.00 | 0.27 | 0.04 | 73 | 1014.5 |
| 20260506005805 | 65 | 151 | 1.7 | 5.2 | 0.00 | 0.27 | 0.04 | 73 | 1014.5 |
| 20260506005724 | 65 | 229 | 1.7 | 6.1 | 0.00 | 0.27 | 0.04 | 74 | 1014.5 |
| 20260506005705 | 65 | 176 | 1.7 | 4.3 | 0.00 | 0.27 | 0.04 | 73 | 1014.5 |
| 20260506005618 | 65 | 174 | 1.7 | 5.2 | 0.00 | 0.27 | 0.04 | 73 | 1014.4 |
| 20260506005608 | 65 | 229 | 1.7 | 6.1 | 0.00 | 0.27 | 0.04 | 74 | 1014.5 |
| 20260506005357 | 64 | 230 | 1.7 | 6.1 | 0.00 | 0.27 | 0.04 | 74 | 1014.4 |
| 20260506005257 | 64 | 231 | 1.7 | 6.1 | 0.00 | 0.27 | 0.04 | 74 | 1014.4 |
| 20260506005157 | 64 | 230 | 2.6 | 6.1 | 0.00 | 0.27 | 0.04 | 74 | 1014.4 |
| 20260506005058 | 64 | 138 | 1.7 | 6.1 | 0.00 | 0.27 | 0.04 | 73 | 1014.4 |
| 20260506004957 | 64 | 190 | 1.7 | 6.1 | 0.00 | 0.27 | 0.04 | 74 | 1014.4 |
| 20260506004850 | 64 | 172 | 1.7 | 6.1 | 0.00 | 0.27 | 0.04 | 74 | 1014.4 |
| 20260506004749 | 64 | 150 | 2.6 | 6.1 | 0.00 | 0.27 | 0.04 | 74 | 1014.4 |
| 20260506004649 | 64 | 160 | 2.6 | 6.1 | 0.00 | 0.27 | 0.04 | 74 | 1014.4 |
| 20260506004550 | 64 | 226 | 1.7 | 6.1 | 0.00 | 0.27 | 0.04 | 74 | 1014.4 |
| 20260506004347 | 64 | 168 | 1.7 | 6.1 | 0.00 | 0.27 | 0.04 | 75 | 1014.4 |
| 20260506004248 | 64 | 217 | 1.7 | 5.2 | 0.00 | 0.27 | 0.04 | 75 | 1014.4 |
| 20260506004147 | 64 | 229 | 1.7 | 5.2 | 0.00 | 0.27 | 0.04 | 75 | 1014.4 |
| 20260506004045 | 64 | 226 | 2.6 | 5.2 | 0.00 | 0.27 | 0.04 | 74 | 1014.4 |
| 20260506003946 | 64 | 235 | 1.7 | 5.2 | 0.00 | 0.27 | 0.04 | 74 | 1014.4 |
| 20260506003839 | 65 | 197 | 1.7 | 5.2 | 0.00 | 0.27 | 0.04 | 74 | 1014.4 |
| 20260506003740 | 65 | 141 | 1.7 | 4.3 | 0.00 | 0.27 | 0.04 | 75 | 1014.4 |
| 20260506003639 | 65 | 239 | 1.7 | 4.3 | 0.00 | 0.27 | 0.04 | 75 | 1014.4 |
| 20260506003540 | 65 | 148 | 1.7 | 4.3 | 0.00 | 0.27 | 0.04 | 75 | 1014.4 |
| 20260506003440 | 64 | 107 | 1.7 | 3.5 | 0.00 | 0.27 | 0.04 | 75 | 1014.4 |
| 20260506003333 | 64 | 221 | 1.7 | 3.5 | 0.00 | 0.27 | 0.04 | 75 | 1014.4 |
| 20260506003232 | 64 | 221 | 1.7 | 3.5 | 0.00 | 0.27 | 0.04 | 75 | 1014.4 |
| 20260506003131 | 64 | 207 | 1.7 | 3.5 | 0.00 | 0.27 | 0.04 | 75 | 1014.5 |
| 20260506003031 | 64 | 213 | 1.7 | 4.3 | 0.00 | 0.27 | 0.04 | 76 | 1014.5 |
| 20260506002934 | 64 | 217 | 1.7 | 4.3 | 0.00 | 0.27 | 0.04 | 76 | 1014.4 |
| 20260506002828 | 64 | 228 | 2.6 | 6.1 | 0.00 | 0.27 | 0.04 | 76 | 1014.4 |
| 20260506002725 | 64 | 217 | 2.6 | 6.1 | 0.00 | 0.27 | 0.04 | 76 | 1014.3 |
| 20260506002703 | 64 | 238 | 2.6 | 6.1 | 0.00 | 0.27 | 0.04 | 75 | 1014.4 |
| 20260506002625 | 64 | 235 | 2.6 | 6.1 | 0.00 | 0.27 | 0.04 | 76 | 1014.4 |
| 20260506002545 | 64 | 229 | 2.6 | 6.1 | 0.00 | 0.27 | 0.04 | 75 | 1014.4 |
| 20260506002534 | 64 | 238 | 2.6 | 6.1 | 0.00 | 0.27 | 0.04 | 75 | 1014.4 |
| 20260506002319 | 64 | 238 | 2.6 | 6.1 | 0.00 | 0.27 | 0.04 | 75 | 1014.4 |
| 20260506002219 | 64 | 238 | 2.6 | 6.1 | 0.00 | 0.27 | 0.04 | 74 | 1014.4 |
| 20260506002119 | 64 | 241 | 2.6 | 6.1 | 0.00 | 0.27 | 0.04 | 74 | 1014.4 |
| 20260506002019 | 64 | 267 | 2.6 | 6.1 | 0.00 | 0.27 | 0.04 | 74 | 1014.4 |
| 20260506001921 | 64 | 236 | 2.6 | 6.1 | 0.00 | 0.27 | 0.04 | 75 | 1014.4 |
| 20260506001814 | 64 | 238 | 2.6 | 6.1 | 0.00 | 0.27 | 0.04 | 75 | 1014.4 |
| 20260506001714 | 64 | 236 | 2.6 | 6.1 | 0.00 | 0.27 | 0.04 | 75 | 1014.4 |
| 20260506001648 | 64 | 193 | 2.6 | 6.1 | 0.00 | 0.27 | 0.04 | 75 | 1014.4 |
| 20260506001613 | 64 | 225 | 2.6 | 6.1 | 0.00 | 0.27 | 0.04 | 75 | 1014.4 |
| 20260506001547 | 64 | 200 | 2.6 | 6.1 | 0.00 | 0.27 | 0.04 | 75 | 1014.4 |
| 20260506001534 | 64 | 193 | 2.6 | 6.1 | 0.00 | 0.27 | 0.04 | 75 | 1014.4 |
| 20260506001309 | 64 | 181 | 2.6 | 6.1 | 0.00 | 0.27 | 0.04 | 75 | 1014.4 |
| 20260506001210 | 64 | 219 | 2.6 | 6.1 | 0.00 | 0.27 | 0.04 | 74 | 1014.4 |
| 20260506001109 | 64 | 225 | 2.6 | 6.1 | 0.00 | 0.27 | 0.04 | 74 | 1014.4 |
| 20260506001009 | 64 | 233 | 2.6 | 6.1 | 0.00 | 0.27 | 0.04 | 75 | 1014.4 |
| 20260506000911 | 64 | 224 | 2.6 | 5.2 | 0.00 | 0.27 | 0.04 | 75 | 1014.4 |
| 20260506000802 | 64 | 231 | 2.6 | 5.2 | 0.00 | 0.27 | 0.04 | 75 | 1014.4 |
| 20260506000701 | 64 | 172 | 2.6 | 5.2 | 0.00 | 0.27 | 0.04 | 75 | 1014.4 |
| 20260506000602 | 64 | 135 | 2.6 | 5.2 | 0.00 | 0.27 | 0.04 | 75 | 1014.4 |
| 20260506000502 | 64 | 210 | 2.6 | 5.2 | 0.00 | 0.27 | 0.04 | 75 | 1014.4 |
| 20260506000404 | 64 | 150 | 2.6 | 5.2 | 0.00 | 0.27 | 0.04 | 75 | 1014.4 |
| 20260506000256 | 64 | 176 | 2.6 | 5.2 | 0.00 | 0.27 | 0.04 | 74 | 1014.4 |
| 20260506000157 | 64 | 211 | 2.6 | 5.2 | 0.00 | 0.27 | 0.04 | 75 | 1014.4 |
| 20260506000056 | 64 | 195 | 2.6 | 5.2 | 0.00 | 0.27 | 0.04 | 75 | 1014.4 |
| 20260505235955 | 64 | 231 | 2.6 | 5.2 | 0.00 | 0.27 | 0.04 | 75 | 1014.4 |
| 20260505235858 | 64 | 228 | 2.6 | 5.2 | 0.00 | 0.27 | 0.04 | 75 | 1014.4 |
| 20260505235751 | 64 | 215 | 2.6 | 5.2 | 0.00 | 0.27 | 0.04 | 75 | 1014.4 |
| 20260505235650 | 64 | 204 | 2.6 | 5.2 | 0.00 | 0.27 | 0.04 | 75 | 1014.4 |
| 20260505235610 | 64 | 242 | 2.6 | 5.2 | 0.00 | 0.27 | 0.04 | 75 | 1014.4 |
| 20260505235549 | 64 | 225 | 2.6 | 5.2 | 0.00 | 0.27 | 0.04 | 74 | 1014.4 |
| 20260505235511 | 64 | 250 | 2.6 | 5.2 | 0.00 | 0.27 | 0.04 | 74 | 1014.4 |
| 20260505235455 | 64 | 242 | 2.6 | 5.2 | 0.00 | 0.27 | 0.04 | 75 | 1014.4 |
| 20260505235243 | 64 | 155 | 2.6 | 5.2 | 0.00 | 0.27 | 0.04 | 74 | 1014.4 |
| 20260505235143 | 64 | 207 | 2.6 | 5.2 | 0.00 | 0.27 | 0.04 | 74 | 1014.4 |
| 20260505235043 | 64 | 239 | 2.6 | 5.2 | 0.00 | 0.27 | 0.04 | 74 | 1014.4 |
| 20260505234944 | 64 | 239 | 2.6 | 5.2 | 0.00 | 0.27 | 0.04 | 74 | 1014.4 |
| 20260505234845 | 65 | 219 | 2.6 | 5.2 | 0.00 | 0.27 | 0.04 | 74 | 1014.4 |
| 20260505234739 | 65 | 167 | 1.7 | 5.2 | 0.00 | 0.27 | 0.04 | 74 | 1014.4 |
| 20260505234640 | 65 | 238 | 1.7 | 5.2 | 0.00 | 0.27 | 0.04 | 74 | 1014.4 |
| 20260505234540 | 65 | 217 | 1.7 | 4.3 | 0.00 | 0.27 | 0.04 | 74 | 1014.4 |
| 20260505234439 | 65 | 221 | 1.7 | 6.1 | 0.00 | 0.27 | 0.04 | 74 | 1014.4 |
| 20260505234353 | 65 | 207 | 1.7 | 6.1 | 0.00 | 0.27 | 0.04 | 74 | 1014.4 |
| 20260505234233 | 65 | 121 | 1.7 | 6.1 | 0.00 | 0.27 | 0.04 | 74 | 1014.3 |
| 20260505234132 | 65 | 212 | 1.7 | 6.1 | 0.00 | 0.27 | 0.04 | 74 | 1014.3 |
| 20260505234056 | 65 | 174 | 1.7 | 6.1 | 0.00 | 0.27 | 0.04 | 73 | 1014.3 |
| 20260505234031 | 65 | 174 | 1.7 | 6.1 | 0.00 | 0.27 | 0.04 | 73 | 1014.3 |
| 20260505233949 | 65 | 208 | 1.7 | 6.1 | 0.00 | 0.27 | 0.04 | 73 | 1014.3 |
| 20260505233939 | 65 | 174 | 1.7 | 6.1 | 0.00 | 0.27 | 0.04 | 73 | 1014.3 |
| 20260505233727 | 65 | 194 | 1.7 | 6.1 | 0.00 | 0.27 | 0.04 | 74 | 1014.3 |
| 20260505233627 | 65 | 148 | 1.7 | 6.1 | 0.00 | 0.27 | 0.04 | 73 | 1014.3 |
| 20260505233551 | 65 | 232 | 1.7 | 4.3 | 0.00 | 0.27 | 0.04 | 74 | 1014.3 |
| 20260505233527 | 65 | 197 | 1.7 | 6.1 | 0.00 | 0.27 | 0.04 | 74 | 1014.3 |
| 20260505233446 | 65 | 235 | 1.7 | 4.3 | 0.00 | 0.27 | 0.04 | 74 | 1014.4 |
| 20260505233433 | 65 | 232 | 1.7 | 4.3 | 0.00 | 0.27 | 0.04 | 74 | 1014.3 |
| 20260505233224 | 65 | 219 | 1.7 | 4.3 | 0.00 | 0.27 | 0.04 | 74 | 1014.3 |
| 20260505233123 | 65 | 236 | 1.7 | 4.3 | 0.00 | 0.27 | 0.04 | 74 | 1014.3 |
| 20260505233024 | 65 | 231 | 1.7 | 4.3 | 0.00 | 0.27 | 0.04 | 74 | 1014.3 |
| 20260505232921 | 65 | 242 | 1.7 | 4.3 | 0.00 | 0.27 | 0.04 | 74 | 1014.3 |
| 20260505232821 | 65 | 208 | 1.7 | 4.3 | 0.00 | 0.27 | 0.04 | 74 | 1014.3 |
| 20260505232714 | 65 | 143 | 1.7 | 4.3 | 0.00 | 0.27 | 0.04 | 73 | 1014.4 |
| 20260505232613 | 65 | 140 | 1.7 | 4.3 | 0.00 | 0.27 | 0.04 | 73 | 1014.4 |
| 20260505232513 | 65 | 225 | 1.7 | 4.3 | 0.00 | 0.27 | 0.04 | 74 | 1014.4 |
| 20260505232414 | 65 | 217 | 1.7 | 7.0 | 0.00 | 0.27 | 0.04 | 74 | 1014.3 |
| 20260505232316 | 65 | 170 | 1.7 | 7.0 | 0.00 | 0.27 | 0.04 | 74 | 1014.4 |
| 20260505232212 | 65 | 143 | 1.7 | 7.0 | 0.00 | 0.27 | 0.04 | 74 | 1014.4 |
| 20260505232111 | 65 | 204 | 1.7 | 7.0 | 0.00 | 0.27 | 0.04 | 74 | 1014.4 |
| 20260505232027 | 65 | 231 | 1.7 | 7.0 | 0.00 | 0.27 | 0.04 | 74 | 1014.3 |
| 20260505232011 | 65 | 134 | 1.7 | 7.0 | 0.00 | 0.27 | 0.04 | 74 | 1014.3 |
| 20260505231923 | 65 | 200 | 1.7 | 7.0 | 0.00 | 0.27 | 0.04 | 74 | 1014.3 |
| 20260505231913 | 65 | 231 | 1.7 | 7.0 | 0.00 | 0.27 | 0.04 | 74 | 1014.3 |
| 20260505231705 | 65 | 226 | 1.7 | 7.0 | 0.00 | 0.27 | 0.04 | 74 | 1014.3 |
| 20260505231606 | 65 | 115 | 1.7 | 7.0 | 0.00 | 0.27 | 0.04 | 74 | 1014.3 |
| 20260505231504 | 65 | 181 | 1.7 | 7.0 | 0.00 | 0.27 | 0.04 | 73 | 1014.3 |
| 20260505231404 | 65 | 217 | 1.7 | 4.3 | 0.00 | 0.27 | 0.04 | 74 | 1014.3 |
| 20260505231303 | 65 | 150 | 1.7 | 4.3 | 0.00 | 0.27 | 0.04 | 74 | 1014.3 |
| 20260505231157 | 65 | 152 | 1.7 | 4.3 | 0.00 | 0.27 | 0.04 | 74 | 1014.3 |
| 20260505231057 | 64 | 141 | 1.7 | 4.3 | 0.00 | 0.27 | 0.04 | 74 | 1014.3 |
| 20260505230958 | 64 | 232 | 1.7 | 5.2 | 0.00 | 0.27 | 0.04 | 74 | 1014.3 |
| 20260505230857 | 65 | 225 | 1.7 | 5.2 | 0.00 | 0.27 | 0.04 | 73 | 1014.3 |
| 20260505230837 | 65 | 231 | 1.7 | 5.2 | 0.00 | 0.27 | 0.04 | 73 | 1014.3 |
| 20260505230758 | 65 | 231 | 1.7 | 5.2 | 0.00 | 0.27 | 0.04 | 73 | 1014.3 |
| 20260505230650 | 65 | 233 | 1.7 | 5.2 | 0.00 | 0.27 | 0.04 | 73 | 1014.3 |
| 20260505230549 | 65 | 245 | 1.7 | 5.2 | 0.00 | 0.28 | 0.04 | 73 | 1014.4 |
| 20260505230449 | 65 | 255 | 1.7 | 5.2 | 0.00 | 0.28 | 0.04 | 74 | 1014.3 |
| 20260505230349 | 65 | 143 | 1.7 | 5.2 | 0.00 | 0.28 | 0.04 | 73 | 1014.3 |
| 20260505230251 | 65 | 226 | 1.7 | 5.2 | 0.00 | 0.28 | 0.04 | 73 | 1014.3 |
| 20260505230146 | 65 | 218 | 1.7 | 5.2 | 0.00 | 0.28 | 0.04 | 73 | 1014.4 |
| 20260505230046 | 65 | 165 | 1.7 | 5.2 | 0.00 | 0.28 | 0.04 | 74 | 1014.4 |
| 20260505225945 | 65 | 150 | 1.7 | 4.3 | 0.00 | 0.28 | 0.04 | 74 | 1014.4 |
| 20260505225846 | 65 | 170 | 1.7 | 4.3 | 0.00 | 0.28 | 0.04 | 74 | 1014.4 |
| 20260505225746 | 65 | 239 | 1.7 | 4.3 | 0.00 | 0.28 | 0.04 | 74 | 1014.4 |
| 20260505225639 | 65 | 150 | 1.7 | 4.3 | 0.00 | 0.28 | 0.04 | 74 | 1014.4 |
| 20260505225537 | 65 | 235 | 1.7 | 4.3 | 0.00 | 0.28 | 0.04 | 74 | 1014.4 |
| 20260505225436 | 65 | 236 | 1.7 | 4.3 | 0.00 | 0.28 | 0.04 | 74 | 1014.4 |
| 20260505225337 | 65 | 236 | 1.7 | 4.3 | 0.00 | 0.28 | 0.04 | 73 | 1014.4 |
| 20260505225241 | 65 | 214 | 1.7 | 4.3 | 0.00 | 0.28 | 0.04 | 73 | 1014.4 |
| 20260505225131 | 65 | 238 | 1.7 | 4.3 | 0.00 | 0.28 | 0.04 | 74 | 1014.4 |
| 20260505225032 | 65 | 200 | 1.7 | 4.3 | 0.00 | 0.28 | 0.04 | 74 | 1014.4 |
| 20260505224931 | 65 | 225 | 1.7 | 5.2 | 0.00 | 0.28 | 0.04 | 74 | 1014.4 |
| 20260505224832 | 65 | 228 | 1.7 | 5.2 | 0.00 | 0.28 | 0.04 | 74 | 1014.4 |
| 20260505224734 | 65 | 181 | 1.7 | 5.2 | 0.00 | 0.28 | 0.04 | 74 | 1014.4 |
| 20260505224631 | 65 | 240 | 1.7 | 5.2 | 0.00 | 0.28 | 0.04 | 74 | 1014.4 |
| 20260505224529 | 65 | 219 | 1.7 | 5.2 | 0.00 | 0.28 | 0.04 | 74 | 1014.5 |
| 20260505224429 | 65 | 198 | 1.7 | 5.2 | 0.00 | 0.28 | 0.04 | 74 | 1014.4 |
| 20260505224328 | 65 | 208 | 1.7 | 5.2 | 0.00 | 0.28 | 0.04 | 74 | 1014.4 |
| 20260505224227 | 65 | 185 | 1.7 | 5.2 | 0.00 | 0.28 | 0.04 | 74 | 1014.5 |
| 20260505224120 | 65 | 221 | 1.7 | 5.2 | 0.00 | 0.28 | 0.04 | 73 | 1014.4 |
| 20260505224019 | 65 | 232 | 1.7 | 5.2 | 0.00 | 0.28 | 0.04 | 73 | 1014.4 |
| 20260505223920 | 65 | 224 | 1.7 | 5.2 | 0.00 | 0.28 | 0.04 | 73 | 1014.5 |
| 20260505223820 | 65 | 242 | 1.7 | 5.2 | 0.00 | 0.28 | 0.04 | 72 | 1014.5 |
| 20260505223720 | 65 | 225 | 1.7 | 4.3 | 0.00 | 0.28 | 0.04 | 73 | 1014.5 |
| 20260505223620 | 65 | 137 | 1.7 | 4.3 | 0.00 | 0.28 | 0.04 | 72 | 1014.5 |
| 20260505223518 | 65 | 137 | 2.6 | 4.3 | 0.00 | 0.28 | 0.04 | 72 | 1014.5 |
| 20260505223418 | 65 | 223 | 2.6 | 4.3 | 0.00 | 0.28 | 0.04 | 71 | 1014.5 |
| 20260505223315 | 65 | 212 | 2.6 | 4.3 | 0.00 | 0.28 | 0.04 | 71 | 1014.6 |
| 20260505223215 | 66 | 186 | 2.6 | 4.3 | 0.00 | 0.28 | 0.04 | 70 | 1014.6 |
| 20260505223109 | 66 | 132 | 2.6 | 4.3 | 0.00 | 0.28 | 0.04 | 70 | 1014.6 |
| 20260505223007 | 66 | 191 | 2.6 | 5.2 | 0.00 | 0.28 | 0.04 | 70 | 1014.6 |
| 20260505222908 | 66 | 243 | 2.6 | 5.2 | 0.00 | 0.28 | 0.04 | 70 | 1014.6 |
| 20260505222807 | 66 | 248 | 2.6 | 5.2 | 0.00 | 0.28 | 0.04 | 70 | 1014.6 |
| 20260505222710 | 66 | 136 | 2.6 | 5.2 | 0.00 | 0.28 | 0.04 | 70 | 1014.6 |
| 20260505222601 | 67 | 212 | 2.6 | 5.2 | 0.00 | 0.28 | 0.04 | 69 | 1014.6 |
| 20260505222501 | 67 | 218 | 1.7 | 5.2 | 0.00 | 0.28 | 0.04 | 69 | 1014.6 |
| 20260505222402 | 67 | 203 | 1.7 | 5.2 | 0.00 | 0.28 | 0.04 | 69 | 1014.6 |
| 20260505222301 | 67 | 205 | 1.7 | 5.2 | 0.00 | 0.28 | 0.04 | 68 | 1014.6 |
| 20260505222202 | 67 | 135 | 1.7 | 5.2 | 0.00 | 0.28 | 0.04 | 68 | 1014.6 |
| 20260505222100 | 67 | 211 | 1.7 | 5.2 | 0.00 | 0.28 | 0.04 | 68 | 1014.6 |
| 20260505221959 | 67 | 236 | 1.7 | 5.2 | 0.00 | 0.28 | 0.04 | 68 | 1014.6 |
| 20260505221900 | 67 | 105 | 1.7 | 5.2 | 0.00 | 0.28 | 0.04 | 68 | 1014.7 |
| 20260505221757 | 67 | 161 | 1.7 | 5.2 | 0.00 | 0.28 | 0.04 | 67 | 1014.7 |
| 20260505221657 | 67 | 238 | 1.7 | 5.2 | 0.00 | 0.28 | 0.04 | 66 | 1014.7 |
| 20260505221550 | 68 | 204 | 1.7 | 4.3 | 0.00 | 0.28 | 0.04 | 66 | 1014.7 |
| 20260505221450 | 68 | 228 | 1.7 | 4.3 | 0.00 | 0.28 | 0.04 | 66 | 1014.7 |
| 20260505221349 | 68 | 167 | 1.7 | 4.3 | 0.00 | 0.28 | 0.04 | 66 | 1014.7 |
| 20260505221250 | 68 | 116 | 1.7 | 4.3 | 0.00 | 0.28 | 0.04 | 66 | 1014.7 |
| 20260505221151 | 68 | 150 | 0.9 | 4.3 | 0.00 | 0.28 | 0.04 | 67 | 1014.7 |
| 20260505221045 | 68 | 134 | 0.9 | 4.3 | 0.00 | 0.28 | 0.04 | 68 | 1014.7 |
| 20260505220945 | 68 | 117 | 0.9 | 4.3 | 0.00 | 0.28 | 0.04 | 68 | 1014.7 |
| 20260505220851 | 66 | 125 | 0.9 | 5.2 | 0.00 | 0.28 | 0.04 | 69 | 1014.7 |
| 20260505220846 | 68 | 231 | 0.9 | 4.3 | 0.00 | 0.28 | 0.04 | 68 | 1014.7 |
| 20260505220751 | 67 | 164 | 0.9 | 4.3 | 0.00 | 0.28 | 0.04 | 68 | 1014.7 |
| 20260505220736 | 67 | 135 | 0.9 | 3.5 | 0.00 | 0.28 | 0.04 | 68 | 1014.7 |
| 20260505220539 | 67 | 98 | 0.9 | 3.5 | 0.00 | 0.28 | 0.04 | 68 | 1014.7 |
| 20260505220515 | 67 | 136 | 0.9 | 3.5 | 0.00 | 0.28 | 0.04 | 69 | 1014.7 |
| 20260505220340 | 67 | 126 | 0.9 | 3.5 | 0.00 | 0.28 | 0.04 | 69 | 1014.7 |
| 20260505220254 | 66 | 125 | 0.9 | 3.5 | 0.00 | 0.28 | 0.04 | 69 | 1014.7 |
| 20260505220243 | 66 | 125 | 0.9 | 5.2 | 0.00 | 0.28 | 0.04 | 69 | 1014.7 |
| 20260505220033 | 66 | 152 | 1.7 | 5.2 | 0.00 | 0.28 | 0.04 | 70 | 1014.8 |
| 20260505215933 | 66 | 76 | 1.7 | 5.2 | 0.00 | 0.28 | 0.04 | 69 | 1014.7 |
| 20260505215834 | 66 | 108 | 1.7 | 5.2 | 0.00 | 0.28 | 0.04 | 70 | 1014.8 |
| 20260505215733 | 65 | 78 | 0.9 | 5.2 | 0.00 | 0.28 | 0.04 | 71 | 1014.8 |
| 20260505215633 | 65 | 150 | 0.9 | 5.2 | 0.00 | 0.28 | 0.04 | 70 | 1014.8 |
| 20260505215529 | 65 | 277 | 0.9 | 5.2 | 0.00 | 0.28 | 0.04 | 71 | 1014.7 |
| 20260505215430 | 65 | 273 | 0.9 | 5.2 | 0.00 | 0.28 | 0.04 | 71 | 1014.8 |
| 20260505215329 | 66 | 260 | 0.9 | 5.2 | 0.00 | 0.28 | 0.04 | 70 | 1014.8 |
| 20260505215228 | 66 | 200 | 0.9 | 5.2 | 0.00 | 0.28 | 0.04 | 70 | 1014.8 |
| 20260505215128 | 66 | 155 | 0.9 | 4.3 | 0.00 | 0.28 | 0.04 | 69 | 1014.8 |
| 20260505215020 | 66 | 153 | 0.9 | 4.3 | 0.00 | 0.28 | 0.04 | 70 | 1014.8 |
| 20260505214919 | 66 | 212 | 0.9 | 3.5 | 0.00 | 0.28 | 0.04 | 71 | 1014.8 |
| 20260505214844 | 66 | 224 | 0.9 | 3.5 | 0.00 | 0.28 | 0.04 | 70 | 1014.8 |
| 20260505214820 | 66 | 245 | 0.9 | 3.5 | 0.00 | 0.28 | 0.04 | 70 | 1014.8 |
| 20260505214738 | 66 | 224 | 0.9 | 3.5 | 0.00 | 0.28 | 0.04 | 70 | 1014.8 |
| 20260505214728 | 66 | 224 | 0.9 | 3.5 | 0.00 | 0.28 | 0.04 | 70 | 1014.8 |
| 20260505214517 | 66 | 260 | 0.9 | 3.5 | 0.00 | 0.28 | 0.04 | 69 | 1014.8 |
| 20260505214418 | 66 | 260 | 0.9 | 3.5 | 0.00 | 0.28 | 0.04 | 69 | 1014.9 |
| 20260505214317 | 66 | 257 | 0.9 | 3.5 | 0.00 | 0.28 | 0.04 | 69 | 1014.9 |
| 20260505214215 | 66 | 227 | 0.9 | 3.5 | 0.00 | 0.28 | 0.04 | 70 | 1014.9 |
| 20260505214116 | 66 | 141 | 0.9 | 3.5 | 0.00 | 0.28 | 0.04 | 70 | 1014.9 |
| 20260505214010 | 66 | 126 | 0.9 | 3.5 | 0.00 | 0.28 | 0.04 | 70 | 1014.9 |
| 20260505213908 | 66 | 149 | 0.9 | 3.5 | 0.00 | 0.28 | 0.04 | 71 | 1014.9 |
| 20260505213807 | 66 | 210 | 0.9 | 3.5 | 0.00 | 0.28 | 0.04 | 70 | 1014.9 |
| 20260505213707 | 66 | 219 | 0.9 | 3.5 | 0.00 | 0.28 | 0.04 | 70 | 1014.9 |
| 20260505213610 | 66 | 150 | 0.9 | 3.5 | 0.00 | 0.28 | 0.04 | 71 | 1014.9 |
| 20260505213503 | 66 | 105 | 0.0 | 1.7 | 0.00 | 0.28 | 0.04 | 71 | 1014.9 |
| 20260505213403 | 65 | 151 | 0.0 | 1.7 | 0.00 | 0.28 | 0.04 | 71 | 1014.9 |
| 20260505213304 | 65 | 163 | 0.0 | 1.7 | 0.00 | 0.28 | 0.04 | 72 | 1014.9 |
| 20260505213204 | 65 | 58 | 0.0 | 1.7 | 0.00 | 0.28 | 0.04 | 72 | 1014.9 |
| 20260505213106 | 65 | 33 | 0.0 | 1.7 | 0.00 | 0.28 | 0.04 | 72 | 1014.9 |
| 20260505213002 | 65 | 34 | 0.0 | 1.7 | 0.00 | 0.28 | 0.04 | 72 | 1014.9 |
| 20260505212900 | 65 | 36 | 0.0 | 1.7 | 0.00 | 0.28 | 0.04 | 72 | 1015.0 |
| 20260505212759 | 65 | 70 | 0.0 | 1.7 | 0.00 | 0.28 | 0.04 | 72 | 1014.9 |
| 20260505212657 | 65 | 74 | 0.0 | 1.7 | 0.00 | 0.28 | 0.04 | 72 | 1015.0 |
| 20260505212600 | 65 | 13 | 0.0 | 1.7 | 0.00 | 0.28 | 0.04 | 72 | 1015.0 |
| 20260505212455 | 65 | 13 | 0.0 | 1.7 | 0.00 | 0.28 | 0.04 | 72 | 1014.9 |
| 20260505212353 | 65 | 97 | 0.0 | 0.9 | 0.00 | 0.28 | 0.04 | 71 | 1015.0 |
| 20260505212254 | 65 | 117 | 0.0 | 0.9 | 0.00 | 0.28 | 0.04 | 72 | 1015.0 |
| 20260505212152 | 65 | 117 | 0.0 | 1.7 | 0.00 | 0.28 | 0.04 | 72 | 1015.0 |
| 20260505212050 | 65 | 117 | 0.0 | 1.7 | 0.00 | 0.28 | 0.04 | 73 | 1015.0 |
| 20260505211949 | 65 | 117 | 0.0 | 1.7 | 0.00 | 0.28 | 0.04 | 73 | 1015.0 |
| 20260505211848 | 65 | 117 | 0.9 | 2.6 | 0.00 | 0.28 | 0.04 | 74 | 1015.0 |
| 20260505211747 | 65 | 231 | 0.9 | 2.6 | 0.00 | 0.28 | 0.04 | 74 | 1015.0 |
| 20260505211645 | 65 | 231 | 0.9 | 2.6 | 0.00 | 0.28 | 0.04 | 76 | 1015.0 |
| 20260505211545 | 65 | 231 | 0.9 | 2.6 | 0.00 | 0.28 | 0.04 | 76 | 1015.0 |
| 20260505211439 | 65 | 231 | 0.9 | 2.6 | 0.00 | 0.28 | 0.04 | 76 | 1015.0 |
| 20260505211337 | 65 | 231 | 0.9 | 2.6 | 0.00 | 0.28 | 0.04 | 75 | 1015.0 |
| 20260505211238 | 65 | 231 | 0.9 | 2.6 | 0.00 | 0.28 | 0.04 | 75 | 1015.0 |
| 20260505211137 | 65 | 228 | 0.9 | 4.3 | 0.00 | 0.28 | 0.04 | 76 | 1015.0 |
| 20260505211040 | 64 | 228 | 0.9 | 4.3 | 0.00 | 0.28 | 0.04 | 76 | 1015.0 |
| 20260505210933 | 64 | 210 | 0.9 | 4.3 | 0.00 | 0.28 | 0.04 | 77 | 1015.0 |
| 20260505210834 | 64 | 146 | 0.9 | 4.3 | 0.00 | 0.28 | 0.04 | 77 | 1015.0 |
| 20260505210733 | 64 | 145 | 0.9 | 4.3 | 0.00 | 0.28 | 0.04 | 77 | 1015.1 |
| 20260505210633 | 64 | 115 | 0.9 | 4.3 | 0.00 | 0.28 | 0.04 | 78 | 1015.0 |
| 20260505210533 | 64 | 179 | 0.9 | 4.3 | 0.00 | 0.28 | 0.04 | 79 | 1015.1 |
| 20260505210428 | 63 | 179 | 0.9 | 4.3 | 0.00 | 0.28 | 0.04 | 79 | 1015.1 |
| 20260505210328 | 63 | 146 | 1.7 | 4.3 | 0.00 | 0.28 | 0.04 | 79 | 1015.0 |
| 20260505210227 | 63 | 219 | 1.7 | 4.3 | 0.00 | 0.28 | 0.04 | 79 | 1015.1 |
| 20260505210127 | 63 | 217 | 1.7 | 4.3 | 0.00 | 0.28 | 0.04 | 79 | 1015.0 |
| 20260505210029 | 63 | 217 | 1.7 | 4.3 | 0.00 | 0.28 | 0.04 | 79 | 1015.1 |
| 20260505205919 | 63 | 226 | 1.7 | 4.3 | 0.00 | 0.28 | 0.04 | 78 | 1015.1 |
| 20260505205820 | 63 | 238 | 1.7 | 4.3 | 0.00 | 0.28 | 0.04 | 79 | 1015.0 |
| 20260505205741 | 62 | 207 | 1.7 | 4.3 | 0.00 | 0.28 | 0.04 | 79 | 1015.0 |
| 20260505205720 | 62 | 248 | 1.7 | 4.3 | 0.00 | 0.28 | 0.04 | 79 | 1015.0 |
| 20260505205636 | 62 | 236 | 1.7 | 4.3 | 0.00 | 0.28 | 0.04 | 80 | 1015.1 |
| 20260505205626 | 62 | 207 | 1.7 | 4.3 | 0.00 | 0.28 | 0.04 | 79 | 1015.0 |
| 20260505205415 | 62 | 184 | 1.7 | 4.3 | 0.00 | 0.28 | 0.04 | 79 | 1015.1 |
| 20260505205313 | 62 | 238 | 1.7 | 5.2 | 0.00 | 0.28 | 0.04 | 80 | 1015.1 |
| 20260505205215 | 62 | 160 | 1.7 | 5.2 | 0.00 | 0.28 | 0.04 | 80 | 1015.0 |
| 20260505205113 | 62 | 193 | 1.7 | 5.2 | 0.00 | 0.28 | 0.04 | 80 | 1015.1 |
| 20260505205016 | 62 | 222 | 0.9 | 5.2 | 0.00 | 0.28 | 0.04 | 80 | 1015.1 |
| 20260505204907 | 62 | 222 | 0.9 | 5.2 | 0.00 | 0.28 | 0.04 | 80 | 1015.1 |
| 20260505204808 | 62 | 235 | 0.9 | 5.2 | 0.00 | 0.28 | 0.04 | 80 | 1015.1 |
| 20260505204729 | 62 | 232 | 0.9 | 5.2 | 0.00 | 0.28 | 0.04 | 81 | 1015.1 |
| 20260505204707 | 62 | 141 | 0.9 | 5.2 | 0.00 | 0.28 | 0.04 | 79 | 1015.1 |
| 20260505204624 | 62 | 233 | 0.9 | 5.2 | 0.00 | 0.28 | 0.04 | 80 | 1015.1 |
| 20260505204614 | 62 | 232 | 0.9 | 5.2 | 0.00 | 0.28 | 0.04 | 81 | 1015.1 |
| 20260505204411 | 62 | 232 | 1.7 | 5.2 | 0.00 | 0.28 | 0.04 | 81 | 1015.2 |
| 20260505204305 | 62 | 226 | 1.7 | 5.2 | 0.00 | 0.28 | 0.04 | 82 | 1015.1 |
| 20260505204230 | 62 | 222 | 2.6 | 7.8 | 0.00 | 0.28 | 0.04 | 81 | 1015.1 |
| 20260505204206 | 62 | 215 | 1.7 | 5.2 | 0.00 | 0.28 | 0.04 | 81 | 1015.1 |
| 20260505204119 | 62 | 218 | 2.6 | 7.0 | 0.00 | 0.28 | 0.04 | 81 | 1015.1 |
| 20260505204108 | 62 | 222 | 2.6 | 7.8 | 0.00 | 0.28 | 0.04 | 81 | 1015.1 |
| 20260505203857 | 62 | 248 | 2.6 | 7.8 | 0.00 | 0.28 | 0.04 | 81 | 1015.1 |
| 20260505203758 | 62 | 236 | 3.5 | 7.8 | 0.00 | 0.28 | 0.04 | 81 | 1015.1 |
| 20260505203657 | 62 | 127 | 3.5 | 7.8 | 0.00 | 0.28 | 0.04 | 82 | 1015.1 |
| 20260505203557 | 61 | 238 | 3.5 | 7.8 | 0.00 | 0.28 | 0.04 | 82 | 1015.1 |
| 20260505203457 | 61 | 158 | 3.5 | 7.8 | 0.00 | 0.28 | 0.04 | 82 | 1015.2 |
| 20260505203349 | 61 | 229 | 3.5 | 7.8 | 0.00 | 0.28 | 0.04 | 82 | 1015.2 |
| 20260505203249 | 61 | 246 | 3.5 | 7.8 | 0.00 | 0.28 | 0.04 | 81 | 1015.2 |
| 20260505203149 | 61 | 229 | 2.6 | 7.8 | 0.00 | 0.28 | 0.04 | 81 | 1015.2 |
| 20260505203050 | 61 | 242 | 2.6 | 7.8 | 0.00 | 0.28 | 0.04 | 81 | 1015.1 |
| 20260505202950 | 62 | 217 | 2.6 | 6.1 | 0.00 | 0.28 | 0.04 | 81 | 1015.1 |
| 20260505202844 | 62 | 224 | 2.6 | 6.1 | 0.00 | 0.28 | 0.04 | 81 | 1015.2 |
| 20260505202745 | 62 | 235 | 2.6 | 6.1 | 0.00 | 0.28 | 0.04 | 81 | 1015.1 |
| 20260505202644 | 62 | 216 | 2.6 | 6.1 | 0.00 | 0.28 | 0.04 | 81 | 1015.1 |
| 20260505202543 | 62 | 231 | 2.6 | 6.1 | 0.00 | 0.28 | 0.04 | 82 | 1015.1 |
| 20260505202445 | 62 | 235 | 2.6 | 6.1 | 0.00 | 0.28 | 0.04 | 81 | 1015.1 |
| 20260505202338 | 62 | 186 | 2.6 | 6.1 | 0.00 | 0.28 | 0.04 | 80 | 1015.1 |
| 20260505202238 | 62 | 204 | 2.6 | 6.1 | 0.00 | 0.28 | 0.04 | 81 | 1015.1 |
| 20260505202157 | 62 | 215 | 1.7 | 7.0 | 0.00 | 0.28 | 0.04 | 80 | 1015.1 |
| 20260505202137 | 62 | 241 | 2.6 | 6.1 | 0.00 | 0.28 | 0.04 | 81 | 1015.1 |
| 20260505202055 | 62 | 160 | 2.6 | 7.0 | 0.00 | 0.28 | 0.04 | 80 | 1015.1 |
| 20260505202045 | 62 | 215 | 1.7 | 7.0 | 0.00 | 0.28 | 0.04 | 80 | 1015.1 |
| 20260505201833 | 62 | 214 | 1.7 | 7.0 | 0.00 | 0.28 | 0.04 | 81 | 1015.2 |
| 20260505201734 | 62 | 256 | 1.7 | 7.0 | 0.00 | 0.28 | 0.04 | 81 | 1015.2 |
| 20260505201653 | 62 | 159 | 1.7 | 7.0 | 0.00 | 0.28 | 0.04 | 81 | 1015.2 |
| 20260505201634 | 62 | 179 | 1.7 | 7.0 | 0.00 | 0.28 | 0.04 | 81 | 1015.2 |
| 20260505201547 | 62 | 155 | 2.6 | 7.0 | 0.00 | 0.28 | 0.04 | 81 | 1015.1 |
| 20260505201537 | 62 | 159 | 1.7 | 7.0 | 0.00 | 0.28 | 0.04 | 81 | 1015.2 |
| 20260505201326 | 62 | 250 | 1.7 | 7.0 | 0.00 | 0.28 | 0.04 | 81 | 1015.2 |
| 20260505201227 | 62 | 135 | 1.7 | 7.0 | 0.00 | 0.28 | 0.04 | 80 | 1015.2 |
| 20260505201125 | 62 | 223 | 1.7 | 7.0 | 0.00 | 0.28 | 0.04 | 80 | 1015.1 |
| 20260505201026 | 62 | 238 | 1.7 | 5.2 | 0.00 | 0.28 | 0.04 | 80 | 1015.2 |
| 20260505200927 | 62 | 224 | 1.7 | 5.2 | 0.00 | 0.28 | 0.04 | 80 | 1015.2 |
| 20260505200821 | 62 | 233 | 1.7 | 4.3 | 0.00 | 0.28 | 0.04 | 80 | 1015.2 |
| 20260505200722 | 62 | 195 | 2.6 | 6.1 | 0.00 | 0.28 | 0.04 | 80 | 1015.2 |
| 20260505200621 | 62 | 242 | 2.6 | 6.1 | 0.00 | 0.28 | 0.04 | 80 | 1015.2 |
| 20260505200521 | 62 | 245 | 2.6 | 6.1 | 0.00 | 0.28 | 0.04 | 80 | 1015.2 |
| 20260505200421 | 62 | 260 | 2.6 | 6.1 | 0.00 | 0.28 | 0.04 | 80 | 1015.2 |
| 20260505200313 | 62 | 235 | 2.6 | 6.1 | 0.00 | 0.28 | 0.04 | 81 | 1015.2 |
| 20260505200214 | 62 | 217 | 2.6 | 6.1 | 0.00 | 0.28 | 0.04 | 80 | 1015.2 |
| 20260505200137 | 62 | 235 | 1.7 | 6.1 | 0.00 | 0.28 | 0.04 | 80 | 1015.2 |
| 20260505200114 | 62 | 204 | 1.7 | 6.1 | 0.00 | 0.28 | 0.04 | 80 | 1015.3 |
| 20260505200030 | 62 | 136 | 1.7 | 6.1 | 0.00 | 0.28 | 0.04 | 80 | 1015.2 |
| 20260505200020 | 62 | 235 | 1.7 | 6.1 | 0.00 | 0.28 | 0.04 | 80 | 1015.2 |
| 20260505195814 | 62 | 167 | 1.7 | 6.1 | 0.00 | 0.28 | 0.04 | 79 | 1015.2 |
| 20260505195712 | 62 | 204 | 1.7 | 5.2 | 0.00 | 0.28 | 0.04 | 80 | 1015.3 |
| 20260505195610 | 62 | 217 | 1.7 | 5.2 | 0.00 | 0.28 | 0.04 | 80 | 1015.3 |
| 20260505195509 | 62 | 141 | 1.7 | 5.2 | 0.00 | 0.28 | 0.04 | 80 | 1015.3 |
| 20260505195413 | 62 | 143 | 1.7 | 4.3 | 0.00 | 0.28 | 0.04 | 80 | 1015.3 |
| 20260505195305 | 62 | 118 | 1.7 | 4.3 | 0.00 | 0.28 | 0.04 | 80 | 1015.3 |
| 20260505195202 | 62 | 154 | 1.7 | 4.3 | 0.00 | 0.28 | 0.04 | 80 | 1015.3 |
| 20260505195101 | 62 | 183 | 1.7 | 4.3 | 0.00 | 0.28 | 0.04 | 80 | 1015.3 |
| 20260505195001 | 62 | 221 | 1.7 | 4.3 | 0.00 | 0.28 | 0.04 | 80 | 1015.3 |
| 20260505194904 | 62 | 146 | 1.7 | 4.3 | 0.00 | 0.28 | 0.04 | 80 | 1015.3 |
| 20260505194756 | 62 | 208 | 1.7 | 4.3 | 0.00 | 0.28 | 0.04 | 79 | 1015.3 |
| 20260505194656 | 62 | 244 | 0.9 | 4.3 | 0.00 | 0.28 | 0.04 | 78 | 1015.3 |
| 20260505194556 | 63 | 236 | 0.9 | 4.3 | 0.00 | 0.28 | 0.04 | 79 | 1015.3 |
| 20260505194456 | 63 | 245 | 0.9 | 4.3 | 0.00 | 0.28 | 0.04 | 79 | 1015.3 |
| 20260505194359 | 63 | 160 | 0.9 | 4.3 | 0.00 | 0.28 | 0.04 | 79 | 1015.3 |
| 20260505194253 | 63 | 150 | 0.9 | 4.3 | 0.00 | 0.28 | 0.04 | 78 | 1015.3 |
| 20260505194154 | 62 | 136 | 0.9 | 3.5 | 0.00 | 0.28 | 0.04 | 77 | 1015.3 |
| 20260505194053 | 62 | 124 | 0.9 | 3.5 | 0.00 | 0.28 | 0.04 | 76 | 1015.3 |
| 20260505193951 | 62 | 99 | 0.9 | 3.5 | 0.00 | 0.28 | 0.04 | 76 | 1015.3 |
| 20260505193851 | 62 | 99 | 0.9 | 3.5 | 0.00 | 0.28 | 0.04 | 76 | 1015.3 |
| 20260505193743 | 62 | 124 | 0.9 | 3.5 | 0.00 | 0.28 | 0.04 | 76 | 1015.3 |
| 20260505193644 | 62 | 124 | 0.9 | 3.5 | 0.00 | 0.28 | 0.04 | 75 | 1015.3 |
| 20260505193601 | 62 | 117 | 0.9 | 3.5 | 0.00 | 0.28 | 0.04 | 75 | 1015.2 |
| 20260505193543 | 62 | 124 | 0.9 | 3.5 | 0.00 | 0.28 | 0.04 | 75 | 1015.3 |
| 20260505193503 | 62 | 104 | 0.9 | 3.5 | 0.00 | 0.28 | 0.04 | 75 | 1015.3 |
| 20260505193449 | 62 | 117 | 0.9 | 3.5 | 0.00 | 0.28 | 0.04 | 75 | 1015.2 |
| 20260505193244 | 62 | 108 | 0.9 | 3.5 | 0.00 | 0.28 | 0.04 | 75 | 1015.3 |
| 20260505193141 | 62 | 347 | 0.9 | 3.5 | 0.00 | 0.28 | 0.04 | 75 | 1015.2 |
| 20260505193042 | 62 | 347 | 0.9 | 3.5 | 0.00 | 0.28 | 0.04 | 76 | 1015.3 |
| 20260505192940 | 63 | 346 | 0.9 | 3.5 | 0.00 | 0.28 | 0.04 | 75 | 1015.3 |
| 20260505192839 | 63 | 71 | 0.0 | 2.6 | 0.00 | 0.28 | 0.04 | 76 | 1015.3 |
| 20260505192732 | 63 | 18 | 0.0 | 2.6 | 0.00 | 0.28 | 0.04 | 76 | 1015.3 |
| 20260505192632 | 63 | 15 | 0.0 | 2.6 | 0.00 | 0.28 | 0.04 | 77 | 1015.3 |
| 20260505192532 | 63 | 45 | 0.0 | 1.7 | 0.00 | 0.28 | 0.04 | 76 | 1015.3 |
| 20260505192432 | 63 | 46 | 0.0 | 1.7 | 0.00 | 0.28 | 0.04 | 76 | 1015.3 |
| 20260505192333 | 62 | 95 | 0.0 | 1.7 | 0.00 | 0.28 | 0.04 | 77 | 1015.3 |
| 20260505192227 | 62 | 76 | 0.0 | 2.6 | 0.00 | 0.28 | 0.04 | 77 | 1015.3 |
| 20260505192127 | 62 | 346 | 0.0 | 2.6 | 0.00 | 0.28 | 0.04 | 77 | 1015.3 |
| 20260505192052 | 62 | 314 | 0.0 | 2.6 | 0.00 | 0.28 | 0.04 | 76 | 1015.3 |
| 20260505192027 | 62 | 315 | 0.0 | 2.6 | 0.00 | 0.28 | 0.04 | 76 | 1015.3 |
| 20260505191941 | 62 | 315 | 0.0 | 2.6 | 0.00 | 0.28 | 0.04 | 76 | 1015.3 |
| 20260505191931 | 62 | 314 | 0.0 | 2.6 | 0.00 | 0.28 | 0.04 | 76 | 1015.3 |
| 20260505191726 | 62 | 315 | 0.9 | 2.6 | 0.00 | 0.28 | 0.04 | 77 | 1015.3 |
| 20260505191623 | 62 | 315 | 0.9 | 2.6 | 0.00 | 0.28 | 0.04 | 77 | 1015.3 |
| 20260505191523 | 62 | 315 | 0.9 | 2.6 | 0.00 | 0.28 | 0.04 | 76 | 1015.3 |
| 20260505191421 | 62 | 315 | 0.9 | 2.6 | 0.00 | 0.28 | 0.04 | 77 | 1015.3 |
| 20260505191322 | 62 | 315 | 0.0 | 2.6 | 0.00 | 0.28 | 0.04 | 77 | 1015.3 |
| 20260505191213 | 62 | 311 | 0.0 | 2.6 | 0.00 | 0.28 | 0.04 | 78 | 1015.3 |
| 20260505191114 | 62 | 310 | 0.0 | 2.6 | 0.00 | 0.28 | 0.04 | 78 | 1015.3 |
| 20260505191013 | 62 | 310 | 0.9 | 2.6 | 0.00 | 0.28 | 0.04 | 77 | 1015.3 |
| 20260505190914 | 62 | 311 | 0.9 | 2.6 | 0.00 | 0.28 | 0.04 | 77 | 1015.2 |
| 20260505190815 | 62 | 311 | 0.9 | 2.6 | 0.00 | 0.28 | 0.04 | 76 | 1015.3 |
| 20260505190714 | 62 | 310 | 0.9 | 2.6 | 0.00 | 0.28 | 0.04 | 77 | 1015.2 |
| 20260505190612 | 62 | 314 | 0.9 | 2.6 | 0.00 | 0.28 | 0.04 | 77 | 1015.3 |
| 20260505190512 | 62 | 314 | 0.9 | 2.6 | 0.00 | 0.28 | 0.04 | 79 | 1015.3 |
| 20260505190409 | 62 | 314 | 0.9 | 2.6 | 0.00 | 0.28 | 0.04 | 77 | 1015.3 |
| 20260505190309 | 62 | 314 | 0.9 | 2.6 | 0.00 | 0.28 | 0.04 | 77 | 1015.3 |
| 20260505190207 | 62 | 314 | 0.9 | 2.6 | 0.00 | 0.28 | 0.04 | 76 | 1015.3 |
| 20260505190106 | 62 | 314 | 0.9 | 2.6 | 0.00 | 0.28 | 0.04 | 76 | 1015.3 |
| 20260505190006 | 62 | 328 | 0.9 | 4.3 | 0.00 | 0.28 | 0.04 | 76 | 1015.3 |
| 20260505185903 | 63 | 326 | 0.9 | 4.3 | 0.00 | 0.28 | 0.04 | 76 | 1015.2 |
| 20260505185804 | 63 | 346 | 0.9 | 4.3 | 0.00 | 0.28 | 0.04 | 76 | 1015.3 |
| 20260505185701 | 63 | 335 | 0.9 | 4.3 | 0.00 | 0.28 | 0.04 | 76 | 1015.2 |
| 20260505185600 | 63 | 342 | 0.9 | 4.3 | 0.00 | 0.28 | 0.04 | 77 | 1015.2 |
| 20260505185500 | 63 | 328 | 0.9 | 4.3 | 0.00 | 0.28 | 0.04 | 76 | 1015.3 |
| 20260505185358 | 63 | 29 | 0.9 | 4.3 | 0.00 | 0.28 | 0.04 | 75 | 1015.2 |
| 20260505185258 | 63 | 15 | 0.9 | 4.3 | 0.00 | 0.28 | 0.04 | 75 | 1015.2 |
| 20260505185152 | 63 | 34 | 0.9 | 4.3 | 0.00 | 0.28 | 0.04 | 75 | 1015.2 |
| 20260505185051 | 63 | 0 | 0.9 | 4.3 | 0.00 | 0.28 | 0.04 | 75 | 1015.2 |
| 20260505184951 | 64 | 6 | 0.9 | 3.5 | 0.00 | 0.28 | 0.04 | 74 | 1015.2 |
| 20260505184852 | 64 | 343 | 0.9 | 3.5 | 0.00 | 0.28 | 0.04 | 75 | 1015.2 |
| 20260505184751 | 63 | 343 | 0.9 | 3.5 | 0.00 | 0.28 | 0.04 | 75 | 1015.2 |
| 20260505184645 | 63 | 50 | 0.9 | 3.5 | 0.00 | 0.28 | 0.04 | 76 | 1015.2 |
| 20260505184545 | 63 | 49 | 0.9 | 3.5 | 0.00 | 0.28 | 0.04 | 75 | 1015.2 |
| 20260505184445 | 63 | 61 | 0.9 | 3.5 | 0.00 | 0.28 | 0.04 | 76 | 1015.1 |
| 20260505184346 | 63 | 127 | 0.9 | 3.5 | 0.00 | 0.28 | 0.04 | 77 | 1015.1 |
| 20260505184247 | 62 | 127 | 0.9 | 3.5 | 0.00 | 0.28 | 0.04 | 76 | 1015.1 |
| 20260505184140 | 62 | 127 | 1.7 | 3.5 | 0.00 | 0.28 | 0.04 | 77 | 1015.1 |
| 20260505184039 | 62 | 158 | 1.7 | 3.5 | 0.00 | 0.28 | 0.04 | 78 | 1015.1 |
| 20260505183939 | 62 | 155 | 1.7 | 4.3 | 0.00 | 0.28 | 0.04 | 79 | 1015.1 |
| 20260505183840 | 62 | 68 | 1.7 | 4.3 | 0.00 | 0.28 | 0.04 | 77 | 1015.1 |
| 20260505183738 | 62 | 71 | 1.7 | 4.3 | 0.00 | 0.28 | 0.04 | 78 | 1015.1 |
| 20260505183634 | 62 | 143 | 1.7 | 4.3 | 0.00 | 0.28 | 0.04 | 78 | 1015.2 |
| 20260505183531 | 62 | 121 | 1.7 | 4.3 | 0.00 | 0.28 | 0.04 | 78 | 1015.1 |
| 20260505183431 | 62 | 186 | 1.7 | 4.3 | 0.00 | 0.28 | 0.04 | 78 | 1015.2 |
| 20260505183332 | 61 | 126 | 1.7 | 4.3 | 0.00 | 0.28 | 0.04 | 78 | 1015.2 |
| 20260505183234 | 62 | 111 | 0.9 | 4.3 | 0.00 | 0.28 | 0.04 | 78 | 1015.2 |
| 20260505183128 | 62 | 45 | 0.9 | 4.3 | 0.00 | 0.28 | 0.04 | 77 | 1015.2 |
| 20260505183027 | 62 | 95 | 0.9 | 4.3 | 0.00 | 0.28 | 0.04 | 77 | 1015.2 |
| 20260505182927 | 62 | 142 | 0.9 | 3.5 | 0.00 | 0.28 | 0.04 | 78 | 1015.2 |
| 20260505182828 | 62 | 143 | 0.9 | 3.5 | 0.00 | 0.28 | 0.04 | 78 | 1015.2 |
| 20260505182728 | 62 | 205 | 0.9 | 3.5 | 0.00 | 0.28 | 0.04 | 78 | 1015.2 |
| 20260505182624 | 62 | 135 | 0.9 | 3.5 | 0.00 | 0.28 | 0.04 | 78 | 1015.2 |
| 20260505182524 | 62 | 139 | 0.9 | 3.5 | 0.00 | 0.28 | 0.04 | 78 | 1015.2 |
| 20260505182423 | 62 | 104 | 0.9 | 3.5 | 0.00 | 0.28 | 0.04 | 78 | 1015.2 |
| 20260505182321 | 62 | 104 | 0.9 | 3.5 | 0.00 | 0.28 | 0.04 | 78 | 1015.2 |
| 20260505182221 | 62 | 150 | 0.9 | 3.5 | 0.00 | 0.28 | 0.04 | 78 | 1015.2 |
| 20260505182115 | 62 | 169 | 0.9 | 3.5 | 0.00 | 0.28 | 0.04 | 78 | 1015.2 |
| 20260505182014 | 62 | 103 | 0.0 | 1.7 | 0.00 | 0.28 | 0.04 | 78 | 1015.2 |
| 20260505181913 | 62 | 231 | 0.9 | 1.7 | 0.00 | 0.28 | 0.04 | 78 | 1015.2 |
| 20260505181814 | 62 | 167 | 0.9 | 1.7 | 0.00 | 0.28 | 0.04 | 79 | 1015.2 |
| 20260505181716 | 62 | 232 | 0.9 | 2.6 | 0.00 | 0.28 | 0.04 | 78 | 1015.2 |
| 20260505181610 | 62 | 243 | 0.9 | 2.6 | 0.00 | 0.28 | 0.04 | 78 | 1015.2 |
| 20260505181510 | 62 | 233 | 0.9 | 2.6 | 0.00 | 0.28 | 0.04 | 80 | 1015.2 |
| 20260505181431 | 62 | 243 | 0.9 | 2.6 | 0.00 | 0.28 | 0.04 | 77 | 1015.1 |
| 20260505181409 | 62 | 233 | 0.9 | 2.6 | 0.00 | 0.28 | 0.04 | 78 | 1015.2 |
| 20260505181325 | 62 | 233 | 0.9 | 2.6 | 0.00 | 0.28 | 0.04 | 78 | 1015.1 |
| 20260505181314 | 62 | 243 | 0.9 | 2.6 | 0.00 | 0.28 | 0.04 | 77 | 1015.1 |
| 20260505181101 | 62 | 236 | 0.9 | 2.6 | 0.00 | 0.28 | 0.04 | 78 | 1015.1 |
| 20260505181002 | 62 | 197 | 0.9 | 2.6 | 0.00 | 0.28 | 0.04 | 78 | 1015.1 |
| 20260505180901 | 62 | 163 | 0.9 | 2.6 | 0.00 | 0.28 | 0.04 | 78 | 1015.1 |
| 20260505180801 | 62 | 217 | 0.0 | 2.6 | 0.00 | 0.28 | 0.04 | 79 | 1015.1 |
| 20260505180705 | 61 | 27 | 0.9 | 2.6 | 0.00 | 0.28 | 0.04 | 78 | 1015.1 |
| 20260505180557 | 61 | 26 | 0.9 | 2.6 | 0.00 | 0.28 | 0.04 | 78 | 1015.1 |
| 20260505180455 | 61 | 26 | 0.9 | 3.5 | 0.00 | 0.28 | 0.04 | 77 | 1015.0 |
| 20260505180359 | 61 | 27 | 0.9 | 3.5 | 0.00 | 0.28 | 0.04 | 77 | 1015.0 |
| 20260505180255 | 61 | 26 | 0.9 | 3.5 | 0.00 | 0.28 | 0.04 | 78 | 1015.0 |
| 20260505180158 | 61 | 337 | 0.9 | 3.5 | 0.00 | 0.28 | 0.04 | 79 | 1015.0 |
| 20260505180049 | 61 | 338 | 0.9 | 3.5 | 0.00 | 0.28 | 0.04 | 81 | 1015.0 |
| 20260505175950 | 61 | 338 | 0.9 | 3.5 | 0.00 | 0.28 | 0.04 | 81 | 1015.0 |
| 20260505175850 | 61 | 108 | 1.7 | 3.5 | 0.00 | 0.28 | 0.04 | 81 | 1015.0 |
| 20260505175749 | 61 | 142 | 0.9 | 3.5 | 0.00 | 0.28 | 0.04 | 81 | 1015.0 |
| 20260505175652 | 61 | 141 | 0.9 | 3.5 | 0.00 | 0.28 | 0.04 | 82 | 1015.1 |
| 20260505175543 | 60 | 146 | 0.9 | 3.5 | 0.00 | 0.28 | 0.04 | 84 | 1015.0 |
| 20260505175444 | 60 | 143 | 0.9 | 2.6 | 0.00 | 0.28 | 0.04 | 84 | 1015.0 |
| 20260505175343 | 60 | 72 | 0.9 | 3.5 | 0.00 | 0.28 | 0.04 | 84 | 1015.0 |
| 20260505175244 | 60 | 149 | 0.9 | 3.5 | 0.00 | 0.28 | 0.04 | 84 | 1015.0 |
| 20260505175146 | 59 | 139 | 1.7 | 4.3 | 0.00 | 0.28 | 0.04 | 84 | 1015.0 |
| 20260505175041 | 59 | 103 | 1.7 | 4.3 | 0.00 | 0.28 | 0.04 | 85 | 1015.0 |
| 20260505174941 | 59 | 151 | 1.7 | 4.3 | 0.00 | 0.28 | 0.04 | 85 | 1015.0 |
| 20260505174841 | 59 | 158 | 1.7 | 4.3 | 0.00 | 0.28 | 0.04 | 85 | 1015.0 |
| 20260505174739 | 59 | 158 | 1.7 | 4.3 | 0.00 | 0.28 | 0.04 | 85 | 1015.0 |
| 20260505174640 | 59 | 217 | 1.7 | 4.3 | 0.00 | 0.28 | 0.04 | 85 | 1015.0 |
| 20260505174531 | 58 | 198 | 1.7 | 4.3 | 0.00 | 0.28 | 0.04 | 85 | 1015.0 |
| 20260505174432 | 58 | 225 | 1.7 | 4.3 | 0.00 | 0.28 | 0.04 | 86 | 1015.0 |
| 20260505174401 | 58 | 144 | 0.9 | 3.5 | 0.00 | 0.28 | 0.04 | 86 | 1015.1 |
| 20260505174332 | 58 | 194 | 1.7 | 4.3 | 0.00 | 0.28 | 0.04 | 87 | 1015.0 |
| 20260505174248 | 58 | 145 | 1.7 | 3.5 | 0.00 | 0.28 | 0.04 | 87 | 1015.1 |
| 20260505174238 | 58 | 144 | 0.9 | 3.5 | 0.00 | 0.28 | 0.04 | 86 | 1015.1 |
| 20260505174026 | 58 | 120 | 0.9 | 3.5 | 0.00 | 0.28 | 0.04 | 86 | 1015.1 |
| 20260505173925 | 58 | 126 | 0.9 | 3.5 | 0.00 | 0.28 | 0.04 | 86 | 1015.1 |
| 20260505173848 | 58 | 193 | 0.9 | 3.5 | 0.00 | 0.28 | 0.04 | 86 | 1015.0 |
| 20260505173825 | 58 | 226 | 0.9 | 3.5 | 0.00 | 0.28 | 0.04 | 86 | 1015.1 |
| 20260505173741 | 58 | 123 | 0.9 | 3.5 | 0.00 | 0.28 | 0.04 | 86 | 1015.1 |
| 20260505173731 | 58 | 193 | 0.9 | 3.5 | 0.00 | 0.28 | 0.04 | 86 | 1015.0 |
| 20260505173521 | 58 | 158 | 0.9 | 3.5 | 0.00 | 0.28 | 0.04 | 87 | 1015.1 |
| 20260505173419 | 58 | 142 | 0.9 | 3.5 | 0.00 | 0.28 | 0.04 | 87 | 1015.1 |
| 20260505173320 | 58 | 143 | 0.9 | 3.5 | 0.00 | 0.28 | 0.04 | 87 | 1015.0 |
| 20260505173220 | 58 | 140 | 0.9 | 3.5 | 0.00 | 0.28 | 0.04 | 88 | 1015.1 |
| 20260505173123 | 58 | 217 | 0.9 | 3.5 | 0.00 | 0.28 | 0.04 | 88 | 1015.1 |
| 20260505173014 | 58 | 144 | 0.9 | 3.5 | 0.00 | 0.28 | 0.04 | 88 | 1015.0 |
| 20260505172914 | 58 | 162 | 0.9 | 3.5 | 0.00 | 0.28 | 0.04 | 88 | 1015.0 |
| 20260505172813 | 58 | 153 | 1.7 | 3.5 | 0.00 | 0.28 | 0.04 | 88 | 1015.1 |
| 20260505172713 | 57 | 153 | 1.7 | 3.5 | 0.00 | 0.28 | 0.04 | 87 | 1015.0 |
| 20260505172618 | 58 | 143 | 1.7 | 3.5 | 0.00 | 0.28 | 0.04 | 88 | 1015.1 |
| 20260505172510 | 57 | 95 | 1.7 | 3.5 | 0.00 | 0.28 | 0.04 | 88 | 1015.1 |
| 20260505172408 | 57 | 110 | 1.7 | 4.3 | 0.00 | 0.28 | 0.04 | 88 | 1015.1 |
| 20260505172307 | 57 | 148 | 1.7 | 4.3 | 0.00 | 0.28 | 0.04 | 88 | 1015.0 |
| 20260505172207 | 57 | 124 | 1.7 | 4.3 | 0.00 | 0.28 | 0.04 | 88 | 1015.0 |
| 20260505172110 | 57 | 132 | 1.7 | 4.3 | 0.00 | 0.28 | 0.04 | 89 | 1015.0 |
| 20260505172004 | 57 | 138 | 1.7 | 4.3 | 0.00 | 0.28 | 0.04 | 88 | 1015.0 |
| 20260505171901 | 57 | 215 | 1.7 | 4.3 | 0.00 | 0.28 | 0.04 | 88 | 1015.0 |
| 20260505171802 | 57 | 224 | 0.9 | 4.3 | 0.00 | 0.28 | 0.04 | 88 | 1015.0 |
| 20260505171702 | 57 | 210 | 0.9 | 4.3 | 0.00 | 0.28 | 0.04 | 89 | 1015.0 |
| 20260505171603 | 57 | 160 | 0.9 | 4.3 | 0.00 | 0.28 | 0.04 | 89 | 1014.9 |
| 20260505171457 | 57 | 149 | 0.9 | 4.3 | 0.00 | 0.28 | 0.04 | 89 | 1015.0 |
| 20260505171359 | 57 | 188 | 0.9 | 4.3 | 0.00 | 0.28 | 0.04 | 89 | 1015.0 |
| 20260505171257 | 57 | 212 | 0.9 | 4.3 | 0.00 | 0.28 | 0.04 | 89 | 1015.0 |
| 20260505171157 | 57 | 198 | 0.9 | 4.3 | 0.00 | 0.28 | 0.04 | 88 | 1015.0 |
| 20260505171057 | 57 | 245 | 0.9 | 4.3 | 0.00 | 0.28 | 0.04 | 89 | 1014.9 |
| 20260505170953 | 57 | 262 | 0.9 | 4.3 | 0.00 | 0.28 | 0.04 | 89 | 1014.9 |
| 20260505170854 | 57 | 210 | 0.9 | 4.3 | 0.00 | 0.28 | 0.04 | 89 | 1015.0 |
| 20260505170753 | 57 | 210 | 1.7 | 4.3 | 0.00 | 0.28 | 0.04 | 90 | 1014.9 |
| 20260505170652 | 57 | 203 | 1.7 | 4.3 | 0.00 | 0.28 | 0.04 | 89 | 1015.0 |
| 20260505170552 | 57 | 132 | 0.9 | 4.3 | 0.00 | 0.28 | 0.04 | 89 | 1014.9 |
| 20260505170443 | 57 | 217 | 0.9 | 3.5 | 0.00 | 0.28 | 0.04 | 90 | 1014.9 |
| 20260505170344 | 57 | 215 | 0.9 | 3.5 | 0.00 | 0.28 | 0.04 | 90 | 1014.9 |
| 20260505170318 | 57 | 128 | 1.7 | 3.5 | 0.00 | 0.28 | 0.04 | 90 | 1014.9 |
| 20260505170243 | 57 | 165 | 0.9 | 3.5 | 0.00 | 0.28 | 0.04 | 90 | 1014.9 |
| 20260505170214 | 57 | 125 | 0.9 | 3.5 | 0.00 | 0.28 | 0.04 | 90 | 1014.9 |
| 20260505170204 | 57 | 128 | 1.7 | 3.5 | 0.00 | 0.28 | 0.04 | 90 | 1014.9 |
| 20260505165937 | 57 | 211 | 1.7 | 6.1 | 0.00 | 0.28 | 0.04 | 90 | 1015.0 |
| 20260505165838 | 57 | 163 | 1.7 | 6.1 | 0.00 | 0.28 | 0.04 | 90 | 1014.9 |
| 20260505165758 | 57 | 116 | 1.7 | 6.1 | 0.00 | 0.28 | 0.04 | 90 | 1014.9 |
| 20260505165738 | 57 | 153 | 1.7 | 6.1 | 0.00 | 0.28 | 0.04 | 90 | 1014.9 |
| 20260505165655 | 57 | 146 | 1.7 | 6.1 | 0.00 | 0.28 | 0.04 | 90 | 1015.0 |
| 20260505165643 | 57 | 116 | 1.7 | 6.1 | 0.00 | 0.28 | 0.04 | 90 | 1014.9 |